PORTS® Data Listing: 9410647 Angels Gate, CA

CO-OPS RAW PORTS DATA

************************      PRELIMINARY DATA      ************************** 

     THIS RAW DATA HAS NOT BEEN SUBJECT TO THE NATIONAL OCEAN SERVICE'S        
     QUALITY CONTROL OR QUALITY ASSURANCE PROCEDURES AND DOES NOT MEET         
     THE CRITERIA AND STANDARDS OF OFFICIAL NATIONAL OCEAN SERVICE             
     DATA.  IT IS RELEASED FOR LIMITED PUBLIC USE AS PRELIMINARY DATA TO       
     BE USED ONLY WITH APPROPRIATE CAUTION.                                    

************************      PRELIMINARY DATA      ************************** 


       CD   -   Calendar date
       T    -   Time
       TZ   -   Timezone
       PW   -   Predicted water level (feet above MLLW)
       OW   -   Observed water level (feet above MLLW)
       WS   -   Wind speed (knots)
       WD   -   Wind direction (degrees true)
       WG   -   Wind gust (knots)
       AT   -   Air temperature (degrees farenheit)
       WT   -   Water temperature (degrees farenheit)
       AP   -   Air pressure (millibars)
       SA   -   Salinty (PSU - Practical Salinity Units)
       SG   -   Specific gravity
       RH   -   Relative humidity
       AG   -   Air gap (feet)
       VI   -   Visibility (nautical miles)

       ** NOTE **
       A variable that has its data fields filled with "9"s, indicates that
       data was not collected for that sample period.
       **********


STATION NAME: Angels Gate (9410647)
****************************************************************************************************
    CD       T    TZ    PW     OW    WS   WD   WG    AT    WT    AP    SA    SG     RH    AG   VI
****************************************************************************************************
2019/11/14 23:18 PST  -99.99 -99.99    6  272    7 -99.9 -99.9 -999.9 -9.9 -9.999 -99.9 -99.99 -9.99
2019/11/14 23:24 PST  -99.99 -99.99    7  272    8 -99.9 -99.9 -999.9 -9.9 -9.999 -99.9 -99.99 -9.99
2019/11/14 23:30 PST  -99.99 -99.99    7  274    8 -99.9 -99.9 -999.9 -9.9 -9.999 -99.9 -99.99 -9.99
2019/11/14 23:36 PST  -99.99 -99.99    6  275    7 -99.9 -99.9 -999.9 -9.9 -9.999 -99.9 -99.99 -9.99
2019/11/14 23:42 PST  -99.99 -99.99    4  278    4 -99.9 -99.9 -999.9 -9.9 -9.999 -99.9 -99.99 -9.99
2019/11/14 23:48 PST  -99.99 -99.99    5  265    5 -99.9 -99.9 -999.9 -9.9 -9.999 -99.9 -99.99 -9.99
2019/11/14 23:54 PST  -99.99 -99.99    5  266    6 -99.9 -99.9 -999.9 -9.9 -9.999 -99.9 -99.99 -9.99
2019/11/15 00:00 PST  -99.99 -99.99    6  256    9 -99.9 -99.9 -999.9 -9.9 -9.999 -99.9 -99.99 -9.99
2019/11/15 00:06 PST  -99.99 -99.99    7  268    8 -99.9 -99.9 -999.9 -9.9 -9.999 -99.9 -99.99 -9.99
2019/11/15 00:12 PST  -99.99 -99.99    5  269    6 -99.9 -99.9 -999.9 -9.9 -9.999 -99.9 -99.99 -9.99
2019/11/15 00:18 PST  -99.99 -99.99    4  279    4 -99.9 -99.9 -999.9 -9.9 -9.999 -99.9 -99.99 -9.99
2019/11/15 00:24 PST  -99.99 -99.99    4  273    5 -99.9 -99.9 -999.9 -9.9 -9.999 -99.9 -99.99 -9.99
2019/11/15 00:30 PST  -99.99 -99.99    4  270    5 -99.9 -99.9 -999.9 -9.9 -9.999 -99.9 -99.99 -9.99
2019/11/15 00:36 PST  -99.99 -99.99    4  277    4 -99.9 -99.9 -999.9 -9.9 -9.999 -99.9 -99.99 -9.99
2019/11/15 00:42 PST  -99.99 -99.99    4  321    5 -99.9 -99.9 -999.9 -9.9 -9.999 -99.9 -99.99 -9.99
2019/11/15 00:48 PST  -99.99 -99.99    2  310    2 -99.9 -99.9 -999.9 -9.9 -9.999 -99.9 -99.99 -9.99
2019/11/15 00:54 PST  -99.99 -99.99    2   26    3 -99.9 -99.9 -999.9 -9.9 -9.999 -99.9 -99.99 -9.99
2019/11/15 01:00 PST  -99.99 -99.99    4   41    4 -99.9 -99.9 -999.9 -9.9 -9.999 -99.9 -99.99 -9.99
2019/11/15 01:06 PST  -99.99 -99.99    5   53    5 -99.9 -99.9 -999.9 -9.9 -9.999 -99.9 -99.99 -9.99
2019/11/15 01:12 PST  -99.99 -99.99    4   63    5 -99.9 -99.9 -999.9 -9.9 -9.999 -99.9 -99.99 -9.99
2019/11/15 01:18 PST  -99.99 -99.99    5   72    5 -99.9 -99.9 -999.9 -9.9 -9.999 -99.9 -99.99 -9.99
2019/11/15 01:24 PST  -99.99 -99.99    5   67    6 -99.9 -99.9 -999.9 -9.9 -9.999 -99.9 -99.99 -9.99
2019/11/15 01:30 PST  -99.99 -99.99    4   76    4 -99.9 -99.9 -999.9 -9.9 -9.999 -99.9 -99.99 -9.99
2019/11/15 01:36 PST  -99.99 -99.99    4   89    4 -99.9 -99.9 -999.9 -9.9 -9.999 -99.9 -99.99 -9.99
2019/11/15 01:42 PST  -99.99 -99.99    4   97    4 -99.9 -99.9 -999.9 -9.9 -9.999 -99.9 -99.99 -9.99
2019/11/15 01:48 PST  -99.99 -99.99    4  100    5 -99.9 -99.9 -999.9 -9.9 -9.999 -99.9 -99.99 -9.99
2019/11/15 01:54 PST  -99.99 -99.99    5  102    5 -99.9 -99.9 -999.9 -9.9 -9.999 -99.9 -99.99 -9.99
2019/11/15 02:00 PST  -99.99 -99.99    5   91    5 -99.9 -99.9 -999.9 -9.9 -9.999 -99.9 -99.99 -9.99
2019/11/15 02:06 PST  -99.99 -99.99    4  102    4 -99.9 -99.9 -999.9 -9.9 -9.999 -99.9 -99.99 -9.99
2019/11/15 02:12 PST  -99.99 -99.99    3  102    4 -99.9 -99.9 -999.9 -9.9 -9.999 -99.9 -99.99 -9.99
2019/11/15 02:18 PST  -99.99 -99.99    4   78    4 -99.9 -99.9 -999.9 -9.9 -9.999 -99.9 -99.99 -9.99
2019/11/15 02:24 PST  -99.99 -99.99    2   90    3 -99.9 -99.9 -999.9 -9.9 -9.999 -99.9 -99.99 -9.99
2019/11/15 02:30 PST  -99.99 -99.99    3  165    4 -99.9 -99.9 -999.9 -9.9 -9.999 -99.9 -99.99 -9.99
2019/11/15 02:36 PST  -99.99 -99.99    3  198    3 -99.9 -99.9 -999.9 -9.9 -9.999 -99.9 -99.99 -9.99
2019/11/15 02:42 PST  -99.99 -99.99    1  244    1 -99.9 -99.9 -999.9 -9.9 -9.999 -99.9 -99.99 -9.99
2019/11/15 02:48 PST  -99.99 -99.99    0  255    1 -99.9 -99.9 -999.9 -9.9 -9.999 -99.9 -99.99 -9.99
2019/11/15 02:54 PST  -99.99 -99.99    2  260    3 -99.9 -99.9 -999.9 -9.9 -9.999 -99.9 -99.99 -9.99
2019/11/15 03:00 PST  -99.99 -99.99    4  261    5 -99.9 -99.9 -999.9 -9.9 -9.999 -99.9 -99.99 -9.99
2019/11/15 03:06 PST  -99.99 -99.99    5  260    6 -99.9 -99.9 -999.9 -9.9 -9.999 -99.9 -99.99 -9.99
2019/11/15 03:12 PST  -99.99 -99.99    5  257    6 -99.9 -99.9 -999.9 -9.9 -9.999 -99.9 -99.99 -9.99
2019/11/15 03:18 PST  -99.99 -99.99    5  251    6 -99.9 -99.9 -999.9 -9.9 -9.999 -99.9 -99.99 -9.99
2019/11/15 03:24 PST  -99.99 -99.99    4  259    5 -99.9 -99.9 -999.9 -9.9 -9.999 -99.9 -99.99 -9.99
2019/11/15 03:30 PST  -99.99 -99.99    4  272    5 -99.9 -99.9 -999.9 -9.9 -9.999 -99.9 -99.99 -9.99
2019/11/15 03:36 PST  -99.99 -99.99    6  272    7 -99.9 -99.9 -999.9 -9.9 -9.999 -99.9 -99.99 -9.99
2019/11/15 03:42 PST  -99.99 -99.99    5  272    6 -99.9 -99.9 -999.9 -9.9 -9.999 -99.9 -99.99 -9.99
2019/11/15 03:48 PST  -99.99 -99.99    4  271    6 -99.9 -99.9 -999.9 -9.9 -9.999 -99.9 -99.99 -9.99
2019/11/15 03:54 PST  -99.99 -99.99    4  264    5 -99.9 -99.9 -999.9 -9.9 -9.999 -99.9 -99.99 -9.99
2019/11/15 04:00 PST  -99.99 -99.99    4  271    5 -99.9 -99.9 -999.9 -9.9 -9.999 -99.9 -99.99 -9.99
2019/11/15 04:06 PST  -99.99 -99.99    3  308    3 -99.9 -99.9 -999.9 -9.9 -9.999 -99.9 -99.99 -9.99
2019/11/15 04:12 PST  -99.99 -99.99    2  291    3 -99.9 -99.9 -999.9 -9.9 -9.999 -99.9 -99.99 -9.99
2019/11/15 04:18 PST  -99.99 -99.99    3  306    3 -99.9 -99.9 -999.9 -9.9 -9.999 -99.9 -99.99 -9.99
2019/11/15 04:24 PST  -99.99 -99.99    2  333    2 -99.9 -99.9 -999.9 -9.9 -9.999 -99.9 -99.99 -9.99
2019/11/15 04:30 PST  -99.99 -99.99    2   19    2 -99.9 -99.9 -999.9 -9.9 -9.999 -99.9 -99.99 -9.99
2019/11/15 04:36 PST  -99.99 -99.99    2   26    2 -99.9 -99.9 -999.9 -9.9 -9.999 -99.9 -99.99 -9.99
2019/11/15 04:42 PST  -99.99 -99.99    1   20    1 -99.9 -99.9 -999.9 -9.9 -9.999 -99.9 -99.99 -9.99
2019/11/15 04:48 PST  -99.99 -99.99    1   55    2 -99.9 -99.9 -999.9 -9.9 -9.999 -99.9 -99.99 -9.99
2019/11/15 04:54 PST  -99.99 -99.99    1   64    2 -99.9 -99.9 -999.9 -9.9 -9.999 -99.9 -99.99 -9.99
2019/11/15 05:00 PST  -99.99 -99.99    3   57    3 -99.9 -99.9 -999.9 -9.9 -9.999 -99.9 -99.99 -9.99
2019/11/15 05:06 PST  -99.99 -99.99    4   55    4 -99.9 -99.9 -999.9 -9.9 -9.999 -99.9 -99.99 -9.99
2019/11/15 05:12 PST  -99.99 -99.99    4   62    4 -99.9 -99.9 -999.9 -9.9 -9.999 -99.9 -99.99 -9.99
2019/11/15 05:18 PST  -99.99 -99.99    5   52    5 -99.9 -99.9 -999.9 -9.9 -9.999 -99.9 -99.99 -9.99
2019/11/15 05:24 PST  -99.99 -99.99    5   68    5 -99.9 -99.9 -999.9 -9.9 -9.999 -99.9 -99.99 -9.99
2019/11/15 05:30 PST  -99.99 -99.99    9   65    9 -99.9 -99.9 -999.9 -9.9 -9.999 -99.9 -99.99 -9.99
2019/11/15 05:36 PST  -99.99 -99.99    7   62    8 -99.9 -99.9 -999.9 -9.9 -9.999 -99.9 -99.99 -9.99
2019/11/15 05:42 PST  -99.99 -99.99 -999 -999 -999 -99.9 -99.9 -999.9 -9.9 -9.999 -99.9 -99.99 -9.99
2019/11/15 05:48 PST  -99.99 -99.99    6   67    6 -99.9 -99.9 -999.9 -9.9 -9.999 -99.9 -99.99 -9.99
2019/11/15 05:54 PST  -99.99 -99.99    4   54    5 -99.9 -99.9 -999.9 -9.9 -9.999 -99.9 -99.99 -9.99
2019/11/15 06:00 PST  -99.99 -99.99    5   66    5 -99.9 -99.9 -999.9 -9.9 -9.999 -99.9 -99.99 -9.99
2019/11/15 06:06 PST  -99.99 -99.99    4   41    4 -99.9 -99.9 -999.9 -9.9 -9.999 -99.9 -99.99 -9.99
2019/11/15 06:12 PST  -99.99 -99.99    3   42    4 -99.9 -99.9 -999.9 -9.9 -9.999 -99.9 -99.99 -9.99
2019/11/15 06:18 PST  -99.99 -99.99    2   10    3 -99.9 -99.9 -999.9 -9.9 -9.999 -99.9 -99.99 -9.99
2019/11/15 06:24 PST  -99.99 -99.99    3  354    3 -99.9 -99.9 -999.9 -9.9 -9.999 -99.9 -99.99 -9.99
2019/11/15 06:30 PST  -99.99 -99.99    1  322    1 -99.9 -99.9 -999.9 -9.9 -9.999 -99.9 -99.99 -9.99
2019/11/15 06:36 PST  -99.99 -99.99    2  344    3 -99.9 -99.9 -999.9 -9.9 -9.999 -99.9 -99.99 -9.99
2019/11/15 06:42 PST  -99.99 -99.99    2  324    2 -99.9 -99.9 -999.9 -9.9 -9.999 -99.9 -99.99 -9.99
2019/11/15 06:48 PST  -99.99 -99.99    1  337    1 -99.9 -99.9 -999.9 -9.9 -9.999 -99.9 -99.99 -9.99
2019/11/15 06:54 PST  -99.99 -99.99    0  319    1 -99.9 -99.9 -999.9 -9.9 -9.999 -99.9 -99.99 -9.99
2019/11/15 07:00 PST  -99.99 -99.99    0    0    0 -99.9 -99.9 -999.9 -9.9 -9.999 -99.9 -99.99 -9.99
2019/11/15 07:06 PST  -99.99 -99.99    0    0    0 -99.9 -99.9 -999.9 -9.9 -9.999 -99.9 -99.99 -9.99
2019/11/15 07:12 PST  -99.99 -99.99    0    0    0 -99.9 -99.9 -999.9 -9.9 -9.999 -99.9 -99.99 -9.99
2019/11/15 07:18 PST  -99.99 -99.99    0  288    0 -99.9 -99.9 -999.9 -9.9 -9.999 -99.9 -99.99 -9.99
2019/11/15 07:24 PST  -99.99 -99.99    0  288    0 -99.9 -99.9 -999.9 -9.9 -9.999 -99.9 -99.99 -9.99
2019/11/15 07:30 PST  -99.99 -99.99    1  290    1 -99.9 -99.9 -999.9 -9.9 -9.999 -99.9 -99.99 -9.99
2019/11/15 07:36 PST  -99.99 -99.99    1  336    1 -99.9 -99.9 -999.9 -9.9 -9.999 -99.9 -99.99 -9.99
2019/11/15 07:42 PST  -99.99 -99.99    1  328    1 -99.9 -99.9 -999.9 -9.9 -9.999 -99.9 -99.99 -9.99
2019/11/15 07:48 PST  -99.99 -99.99    1  323    1 -99.9 -99.9 -999.9 -9.9 -9.999 -99.9 -99.99 -9.99
2019/11/15 07:54 PST  -99.99 -99.99    1  348    2 -99.9 -99.9 -999.9 -9.9 -9.999 -99.9 -99.99 -9.99
2019/11/15 08:00 PST  -99.99 -99.99    1   38    1 -99.9 -99.9 -999.9 -9.9 -9.999 -99.9 -99.99 -9.99
2019/11/15 08:06 PST  -99.99 -99.99    1   77    1 -99.9 -99.9 -999.9 -9.9 -9.999 -99.9 -99.99 -9.99
2019/11/15 08:12 PST  -99.99 -99.99    0   92    1 -99.9 -99.9 -999.9 -9.9 -9.999 -99.9 -99.99 -9.99
2019/11/15 08:18 PST  -99.99 -99.99    0    0    0 -99.9 -99.9 -999.9 -9.9 -9.999 -99.9 -99.99 -9.99
2019/11/15 08:24 PST  -99.99 -99.99    2   87    2 -99.9 -99.9 -999.9 -9.9 -9.999 -99.9 -99.99 -9.99
2019/11/15 08:30 PST  -99.99 -99.99    3   90    3 -99.9 -99.9 -999.9 -9.9 -9.999 -99.9 -99.99 -9.99
2019/11/15 08:36 PST  -99.99 -99.99    3   92    3 -99.9 -99.9 -999.9 -9.9 -9.999 -99.9 -99.99 -9.99
2019/11/15 08:42 PST  -99.99 -99.99    2   96    3 -99.9 -99.9 -999.9 -9.9 -9.999 -99.9 -99.99 -9.99
2019/11/15 08:48 PST  -99.99 -99.99    1  106    2 -99.9 -99.9 -999.9 -9.9 -9.999 -99.9 -99.99 -9.99
2019/11/15 08:54 PST  -99.99 -99.99    2   87    2 -99.9 -99.9 -999.9 -9.9 -9.999 -99.9 -99.99 -9.99
2019/11/15 09:00 PST  -99.99 -99.99    3  108    3 -99.9 -99.9 -999.9 -9.9 -9.999 -99.9 -99.99 -9.99
2019/11/15 09:06 PST  -99.99 -99.99    4  106    4 -99.9 -99.9 -999.9 -9.9 -9.999 -99.9 -99.99 -9.99
2019/11/15 09:12 PST  -99.99 -99.99    4  110    4 -99.9 -99.9 -999.9 -9.9 -9.999 -99.9 -99.99 -9.99
2019/11/15 09:18 PST  -99.99 -99.99    4  118    4 -99.9 -99.9 -999.9 -9.9 -9.999 -99.9 -99.99 -9.99
2019/11/15 09:24 PST  -99.99 -99.99    4  102    4 -99.9 -99.9 -999.9 -9.9 -9.999 -99.9 -99.99 -9.99
2019/11/15 09:30 PST  -99.99 -99.99    4  111    4 -99.9 -99.9 -999.9 -9.9 -9.999 -99.9 -99.99 -9.99
2019/11/15 09:36 PST  -99.99 -99.99    3  100    4 -99.9 -99.9 -999.9 -9.9 -9.999 -99.9 -99.99 -9.99
2019/11/15 09:42 PST  -99.99 -99.99    3  119    4 -99.9 -99.9 -999.9 -9.9 -9.999 -99.9 -99.99 -9.99
2019/11/15 09:48 PST  -99.99 -99.99    3  115    4 -99.9 -99.9 -999.9 -9.9 -9.999 -99.9 -99.99 -9.99
2019/11/15 09:54 PST  -99.99 -99.99    3  125    4 -99.9 -99.9 -999.9 -9.9 -9.999 -99.9 -99.99 -9.99
2019/11/15 10:00 PST  -99.99 -99.99    3  112    4 -99.9 -99.9 -999.9 -9.9 -9.999 -99.9 -99.99 -9.99
2019/11/15 10:06 PST  -99.99 -99.99    4  126    4 -99.9 -99.9 -999.9 -9.9 -9.999 -99.9 -99.99 -9.99
2019/11/15 10:12 PST  -99.99 -99.99    3  155    3 -99.9 -99.9 -999.9 -9.9 -9.999 -99.9 -99.99 -9.99
2019/11/15 10:18 PST  -99.99 -99.99    4  167    4 -99.9 -99.9 -999.9 -9.9 -9.999 -99.9 -99.99 -9.99
2019/11/15 10:24 PST  -99.99 -99.99    4  193    5 -99.9 -99.9 -999.9 -9.9 -9.999 -99.9 -99.99 -9.99
2019/11/15 10:30 PST  -99.99 -99.99    4  190    4 -99.9 -99.9 -999.9 -9.9 -9.999 -99.9 -99.99 -9.99
2019/11/15 10:36 PST  -99.99 -99.99    4  198    5 -99.9 -99.9 -999.9 -9.9 -9.999 -99.9 -99.99 -9.99
2019/11/15 10:42 PST  -99.99 -99.99    5  182    5 -99.9 -99.9 -999.9 -9.9 -9.999 -99.9 -99.99 -9.99
2019/11/15 10:48 PST  -99.99 -99.99    4  175    5 -99.9 -99.9 -999.9 -9.9 -9.999 -99.9 -99.99 -9.99
2019/11/15 10:54 PST  -99.99 -99.99 -999 -999 -999 -99.9 -99.9 -999.9 -9.9 -9.999 -99.9 -99.99 -9.99
2019/11/15 11:00 PST  -99.99 -99.99    4  158    4 -99.9 -99.9 -999.9 -9.9 -9.999 -99.9 -99.99 -9.99
2019/11/15 11:06 PST  -99.99 -99.99    4  168    4 -99.9 -99.9 -999.9 -9.9 -9.999 -99.9 -99.99 -9.99
2019/11/15 11:12 PST  -99.99 -99.99    5  195    5 -99.9 -99.9 -999.9 -9.9 -9.999 -99.9 -99.99 -9.99
2019/11/15 11:18 PST  -99.99 -99.99    5  198    5 -99.9 -99.9 -999.9 -9.9 -9.999 -99.9 -99.99 -9.99
2019/11/15 11:24 PST  -99.99 -99.99    5  207    6 -99.9 -99.9 -999.9 -9.9 -9.999 -99.9 -99.99 -9.99
2019/11/15 11:30 PST  -99.99 -99.99 -999 -999 -999 -99.9 -99.9 -999.9 -9.9 -9.999 -99.9 -99.99 -9.99
2019/11/15 11:36 PST  -99.99 -99.99    2  192    2 -99.9 -99.9 -999.9 -9.9 -9.999 -99.9 -99.99 -9.99
2019/11/15 11:42 PST  -99.99 -99.99    1  186    1 -99.9 -99.9 -999.9 -9.9 -9.999 -99.9 -99.99 -9.99
2019/11/15 11:48 PST  -99.99 -99.99    2  150    3 -99.9 -99.9 -999.9 -9.9 -9.999 -99.9 -99.99 -9.99
2019/11/15 11:54 PST  -99.99 -99.99    3  157    3 -99.9 -99.9 -999.9 -9.9 -9.999 -99.9 -99.99 -9.99
2019/11/15 12:00 PST  -99.99 -99.99    4  193    5 -99.9 -99.9 -999.9 -9.9 -9.999 -99.9 -99.99 -9.99
2019/11/15 12:06 PST  -99.99 -99.99    6  206    6 -99.9 -99.9 -999.9 -9.9 -9.999 -99.9 -99.99 -9.99
2019/11/15 12:12 PST  -99.99 -99.99    4  182    5 -99.9 -99.9 -999.9 -9.9 -9.999 -99.9 -99.99 -9.99
2019/11/15 12:18 PST  -99.99 -99.99    5  192    5 -99.9 -99.9 -999.9 -9.9 -9.999 -99.9 -99.99 -9.99
2019/11/15 12:24 PST  -99.99 -99.99    6  208    6 -99.9 -99.9 -999.9 -9.9 -9.999 -99.9 -99.99 -9.99
2019/11/15 12:30 PST  -99.99 -99.99    4  200    5 -99.9 -99.9 -999.9 -9.9 -9.999 -99.9 -99.99 -9.99
2019/11/15 12:36 PST  -99.99 -99.99    4  210    4 -99.9 -99.9 -999.9 -9.9 -9.999 -99.9 -99.99 -9.99
2019/11/15 12:42 PST  -99.99 -99.99    3  178    3 -99.9 -99.9 -999.9 -9.9 -9.999 -99.9 -99.99 -9.99
2019/11/15 12:48 PST  -99.99 -99.99    1  168    2 -99.9 -99.9 -999.9 -9.9 -9.999 -99.9 -99.99 -9.99
2019/11/15 12:54 PST  -99.99 -99.99    1  104    1 -99.9 -99.9 -999.9 -9.9 -9.999 -99.9 -99.99 -9.99
2019/11/15 13:00 PST  -99.99 -99.99    2  167    2 -99.9 -99.9 -999.9 -9.9 -9.999 -99.9 -99.99 -9.99
2019/11/15 13:06 PST  -99.99 -99.99    5  185    5 -99.9 -99.9 -999.9 -9.9 -9.999 -99.9 -99.99 -9.99
2019/11/15 13:12 PST  -99.99 -99.99    8  210    9 -99.9 -99.9 -999.9 -9.9 -9.999 -99.9 -99.99 -9.99
2019/11/15 13:18 PST  -99.99 -99.99    6  207    7 -99.9 -99.9 -999.9 -9.9 -9.999 -99.9 -99.99 -9.99
2019/11/15 13:24 PST  -99.99 -99.99    6  213    6 -99.9 -99.9 -999.9 -9.9 -9.999 -99.9 -99.99 -9.99
2019/11/15 13:30 PST  -99.99 -99.99    6  219    7 -99.9 -99.9 -999.9 -9.9 -9.999 -99.9 -99.99 -9.99
2019/11/15 13:36 PST  -99.99 -99.99   10  220   11 -99.9 -99.9 -999.9 -9.9 -9.999 -99.9 -99.99 -9.99
2019/11/15 13:42 PST  -99.99 -99.99   12  224   14 -99.9 -99.9 -999.9 -9.9 -9.999 -99.9 -99.99 -9.99
2019/11/15 13:48 PST  -99.99 -99.99    9  234   11 -99.9 -99.9 -999.9 -9.9 -9.999 -99.9 -99.99 -9.99
2019/11/15 13:54 PST  -99.99 -99.99   13  239   17 -99.9 -99.9 -999.9 -9.9 -9.999 -99.9 -99.99 -9.99
2019/11/15 14:00 PST  -99.99 -99.99   13  240   16 -99.9 -99.9 -999.9 -9.9 -9.999 -99.9 -99.99 -9.99
2019/11/15 14:06 PST  -99.99 -99.99   13  233   15 -99.9 -99.9 -999.9 -9.9 -9.999 -99.9 -99.99 -9.99
2019/11/15 14:12 PST  -99.99 -99.99   14  232   17 -99.9 -99.9 -999.9 -9.9 -9.999 -99.9 -99.99 -9.99
2019/11/15 14:18 PST  -99.99 -99.99   10  235   14 -99.9 -99.9 -999.9 -9.9 -9.999 -99.9 -99.99 -9.99
2019/11/15 14:24 PST  -99.99 -99.99   13  234   15 -99.9 -99.9 -999.9 -9.9 -9.999 -99.9 -99.99 -9.99
2019/11/15 14:30 PST  -99.99 -99.99   12  241   15 -99.9 -99.9 -999.9 -9.9 -9.999 -99.9 -99.99 -9.99
2019/11/15 14:36 PST  -99.99 -99.99   13  236   17 -99.9 -99.9 -999.9 -9.9 -9.999 -99.9 -99.99 -9.99
2019/11/15 14:42 PST  -99.99 -99.99   12  236   15 -99.9 -99.9 -999.9 -9.9 -9.999 -99.9 -99.99 -9.99
2019/11/15 14:48 PST  -99.99 -99.99   13  238   15 -99.9 -99.9 -999.9 -9.9 -9.999 -99.9 -99.99 -9.99
2019/11/15 14:54 PST  -99.99 -99.99   15  242   18 -99.9 -99.9 -999.9 -9.9 -9.999 -99.9 -99.99 -9.99
2019/11/15 15:00 PST  -99.99 -99.99   16  239   18 -99.9 -99.9 -999.9 -9.9 -9.999 -99.9 -99.99 -9.99
2019/11/15 15:06 PST  -99.99 -99.99   12  242   16 -99.9 -99.9 -999.9 -9.9 -9.999 -99.9 -99.99 -9.99
2019/11/15 15:12 PST  -99.99 -99.99   13  251   16 -99.9 -99.9 -999.9 -9.9 -9.999 -99.9 -99.99 -9.99
2019/11/15 15:18 PST  -99.99 -99.99   13  255   15 -99.9 -99.9 -999.9 -9.9 -9.999 -99.9 -99.99 -9.99
2019/11/15 15:24 PST  -99.99 -99.99   11  252   13 -99.9 -99.9 -999.9 -9.9 -9.999 -99.9 -99.99 -9.99
2019/11/15 15:30 PST  -99.99 -99.99   11  254   13 -99.9 -99.9 -999.9 -9.9 -9.999 -99.9 -99.99 -9.99
2019/11/15 15:36 PST  -99.99 -99.99   10  256   11 -99.9 -99.9 -999.9 -9.9 -9.999 -99.9 -99.99 -9.99
2019/11/15 15:42 PST  -99.99 -99.99    9  252   11 -99.9 -99.9 -999.9 -9.9 -9.999 -99.9 -99.99 -9.99
2019/11/15 15:48 PST  -99.99 -99.99    8  245    9 -99.9 -99.9 -999.9 -9.9 -9.999 -99.9 -99.99 -9.99
2019/11/15 15:54 PST  -99.99 -99.99    9  243   12 -99.9 -99.9 -999.9 -9.9 -9.999 -99.9 -99.99 -9.99
2019/11/15 16:00 PST  -99.99 -99.99   12  250   13 -99.9 -99.9 -999.9 -9.9 -9.999 -99.9 -99.99 -9.99
2019/11/15 16:06 PST  -99.99 -99.99    8  247   10 -99.9 -99.9 -999.9 -9.9 -9.999 -99.9 -99.99 -9.99
2019/11/15 16:12 PST  -99.99 -99.99    8  252    9 -99.9 -99.9 -999.9 -9.9 -9.999 -99.9 -99.99 -9.99
2019/11/15 16:18 PST  -99.99 -99.99    5  255    6 -99.9 -99.9 -999.9 -9.9 -9.999 -99.9 -99.99 -9.99
2019/11/15 16:24 PST  -99.99 -99.99    5  260    6 -99.9 -99.9 -999.9 -9.9 -9.999 -99.9 -99.99 -9.99
2019/11/15 16:30 PST  -99.99 -99.99    4  244    5 -99.9 -99.9 -999.9 -9.9 -9.999 -99.9 -99.99 -9.99
2019/11/15 16:36 PST  -99.99 -99.99    5  249    5 -99.9 -99.9 -999.9 -9.9 -9.999 -99.9 -99.99 -9.99
2019/11/15 16:42 PST  -99.99 -99.99    5  243    6 -99.9 -99.9 -999.9 -9.9 -9.999 -99.9 -99.99 -9.99
2019/11/15 16:48 PST  -99.99 -99.99    5  242    6 -99.9 -99.9 -999.9 -9.9 -9.999 -99.9 -99.99 -9.99
2019/11/15 16:54 PST  -99.99 -99.99    6  249    7 -99.9 -99.9 -999.9 -9.9 -9.999 -99.9 -99.99 -9.99
2019/11/15 17:00 PST  -99.99 -99.99    6  233    6 -99.9 -99.9 -999.9 -9.9 -9.999 -99.9 -99.99 -9.99
2019/11/15 17:06 PST  -99.99 -99.99    5  244    6 -99.9 -99.9 -999.9 -9.9 -9.999 -99.9 -99.99 -9.99
2019/11/15 17:12 PST  -99.99 -99.99    4  239    5 -99.9 -99.9 -999.9 -9.9 -9.999 -99.9 -99.99 -9.99
2019/11/15 17:18 PST  -99.99 -99.99    5  231    7 -99.9 -99.9 -999.9 -9.9 -9.999 -99.9 -99.99 -9.99
2019/11/15 17:24 PST  -99.99 -99.99    4  240    6 -99.9 -99.9 -999.9 -9.9 -9.999 -99.9 -99.99 -9.99
2019/11/15 17:30 PST  -99.99 -99.99    5  243    5 -99.9 -99.9 -999.9 -9.9 -9.999 -99.9 -99.99 -9.99
2019/11/15 17:36 PST  -99.99 -99.99    6  250    7 -99.9 -99.9 -999.9 -9.9 -9.999 -99.9 -99.99 -9.99
2019/11/15 17:42 PST  -99.99 -99.99    5  248    6 -99.9 -99.9 -999.9 -9.9 -9.999 -99.9 -99.99 -9.99
2019/11/15 17:48 PST  -99.99 -99.99    5  246    6 -99.9 -99.9 -999.9 -9.9 -9.999 -99.9 -99.99 -9.99
2019/11/15 17:54 PST  -99.99 -99.99    6  244    6 -99.9 -99.9 -999.9 -9.9 -9.999 -99.9 -99.99 -9.99
2019/11/15 18:00 PST  -99.99 -99.99    7  237    8 -99.9 -99.9 -999.9 -9.9 -9.999 -99.9 -99.99 -9.99
2019/11/15 18:06 PST  -99.99 -99.99    7  246    7 -99.9 -99.9 -999.9 -9.9 -9.999 -99.9 -99.99 -9.99
2019/11/15 18:12 PST  -99.99 -99.99    6  248    8 -99.9 -99.9 -999.9 -9.9 -9.999 -99.9 -99.99 -9.99
2019/11/15 18:18 PST  -99.99 -99.99    7  242    8 -99.9 -99.9 -999.9 -9.9 -9.999 -99.9 -99.99 -9.99
2019/11/15 18:24 PST  -99.99 -99.99    7  241    9 -99.9 -99.9 -999.9 -9.9 -9.999 -99.9 -99.99 -9.99
2019/11/15 18:30 PST  -99.99 -99.99    7  251    9 -99.9 -99.9 -999.9 -9.9 -9.999 -99.9 -99.99 -9.99
2019/11/15 18:36 PST  -99.99 -99.99    8  249    9 -99.9 -99.9 -999.9 -9.9 -9.999 -99.9 -99.99 -9.99
2019/11/15 18:42 PST  -99.99 -99.99    9  256   10 -99.9 -99.9 -999.9 -9.9 -9.999 -99.9 -99.99 -9.99
2019/11/15 18:48 PST  -99.99 -99.99    7  244   10 -99.9 -99.9 -999.9 -9.9 -9.999 -99.9 -99.99 -9.99
2019/11/15 18:54 PST  -99.99 -99.99    7  249    7 -99.9 -99.9 -999.9 -9.9 -9.999 -99.9 -99.99 -9.99
2019/11/15 19:00 PST  -99.99 -99.99    5  238    6 -99.9 -99.9 -999.9 -9.9 -9.999 -99.9 -99.99 -9.99
2019/11/15 19:06 PST  -99.99 -99.99    4  256    5 -99.9 -99.9 -999.9 -9.9 -9.999 -99.9 -99.99 -9.99
2019/11/15 19:12 PST  -99.99 -99.99    4  266    5 -99.9 -99.9 -999.9 -9.9 -9.999 -99.9 -99.99 -9.99
2019/11/15 19:18 PST  -99.99 -99.99    4  261    4 -99.9 -99.9 -999.9 -9.9 -9.999 -99.9 -99.99 -9.99
2019/11/15 19:24 PST  -99.99 -99.99    3  258    3 -99.9 -99.9 -999.9 -9.9 -9.999 -99.9 -99.99 -9.99
2019/11/15 19:30 PST  -99.99 -99.99    3  242    4 -99.9 -99.9 -999.9 -9.9 -9.999 -99.9 -99.99 -9.99
2019/11/15 19:36 PST  -99.99 -99.99    3  243    3 -99.9 -99.9 -999.9 -9.9 -9.999 -99.9 -99.99 -9.99
2019/11/15 19:42 PST  -99.99 -99.99    2  245    3 -99.9 -99.9 -999.9 -9.9 -9.999 -99.9 -99.99 -9.99
2019/11/15 19:48 PST  -99.99 -99.99    3  238    4 -99.9 -99.9 -999.9 -9.9 -9.999 -99.9 -99.99 -9.99
2019/11/15 19:54 PST  -99.99 -99.99    4  241    4 -99.9 -99.9 -999.9 -9.9 -9.999 -99.9 -99.99 -9.99
2019/11/15 20:00 PST  -99.99 -99.99    3  245    3 -99.9 -99.9 -999.9 -9.9 -9.999 -99.9 -99.99 -9.99
2019/11/15 20:06 PST  -99.99 -99.99    3  251    3 -99.9 -99.9 -999.9 -9.9 -9.999 -99.9 -99.99 -9.99
2019/11/15 20:12 PST  -99.99 -99.99    2  230    2 -99.9 -99.9 -999.9 -9.9 -9.999 -99.9 -99.99 -9.99
2019/11/15 20:18 PST  -99.99 -99.99    2  237    2 -99.9 -99.9 -999.9 -9.9 -9.999 -99.9 -99.99 -9.99
2019/11/15 20:24 PST  -99.99 -99.99    2  236    2 -99.9 -99.9 -999.9 -9.9 -9.999 -99.9 -99.99 -9.99
2019/11/15 20:30 PST  -99.99 -99.99    2  240    2 -99.9 -99.9 -999.9 -9.9 -9.999 -99.9 -99.99 -9.99
2019/11/15 20:36 PST  -99.99 -99.99    2  258    3 -99.9 -99.9 -999.9 -9.9 -9.999 -99.9 -99.99 -9.99
2019/11/15 20:42 PST  -99.99 -99.99    3  258    3 -99.9 -99.9 -999.9 -9.9 -9.999 -99.9 -99.99 -9.99
2019/11/15 20:48 PST  -99.99 -99.99    4  255    4 -99.9 -99.9 -999.9 -9.9 -9.999 -99.9 -99.99 -9.99
2019/11/15 20:54 PST  -99.99 -99.99    4  263    4 -99.9 -99.9 -999.9 -9.9 -9.999 -99.9 -99.99 -9.99
2019/11/15 21:00 PST  -99.99 -99.99    3  277    3 -99.9 -99.9 -999.9 -9.9 -9.999 -99.9 -99.99 -9.99
2019/11/15 21:06 PST  -99.99 -99.99    2  280    2 -99.9 -99.9 -999.9 -9.9 -9.999 -99.9 -99.99 -9.99
2019/11/15 21:12 PST  -99.99 -99.99    3  278    3 -99.9 -99.9 -999.9 -9.9 -9.999 -99.9 -99.99 -9.99
2019/11/15 21:18 PST  -99.99 -99.99    3  279    3 -99.9 -99.9 -999.9 -9.9 -9.999 -99.9 -99.99 -9.99
2019/11/15 21:24 PST  -99.99 -99.99    3  280    3 -99.9 -99.9 -999.9 -9.9 -9.999 -99.9 -99.99 -9.99
2019/11/15 21:30 PST  -99.99 -99.99    2  274    2 -99.9 -99.9 -999.9 -9.9 -9.999 -99.9 -99.99 -9.99
2019/11/15 21:36 PST  -99.99 -99.99    2  246    2 -99.9 -99.9 -999.9 -9.9 -9.999 -99.9 -99.99 -9.99
2019/11/15 21:42 PST  -99.99 -99.99    2  261    2 -99.9 -99.9 -999.9 -9.9 -9.999 -99.9 -99.99 -9.99
2019/11/15 21:48 PST  -99.99 -99.99    2  275    2 -99.9 -99.9 -999.9 -9.9 -9.999 -99.9 -99.99 -9.99
2019/11/15 21:54 PST  -99.99 -99.99    2  307    2 -99.9 -99.9 -999.9 -9.9 -9.999 -99.9 -99.99 -9.99
2019/11/15 22:00 PST  -99.99 -99.99    3  340    3 -99.9 -99.9 -999.9 -9.9 -9.999 -99.9 -99.99 -9.99
2019/11/15 22:06 PST  -99.99 -99.99    3  343    3 -99.9 -99.9 -999.9 -9.9 -9.999 -99.9 -99.99 -9.99
2019/11/15 22:12 PST  -99.99 -99.99    3    4    3 -99.9 -99.9 -999.9 -9.9 -9.999 -99.9 -99.99 -9.99
2019/11/15 22:18 PST  -99.99 -99.99    3   22    3 -99.9 -99.9 -999.9 -9.9 -9.999 -99.9 -99.99 -9.99
2019/11/15 22:24 PST  -99.99 -99.99    3   40    4 -99.9 -99.9 -999.9 -9.9 -9.999 -99.9 -99.99 -9.99
2019/11/15 22:30 PST  -99.99 -99.99    2   74    2 -99.9 -99.9 -999.9 -9.9 -9.999 -99.9 -99.99 -9.99
2019/11/15 22:36 PST  -99.99 -99.99    2   63    2 -99.9 -99.9 -999.9 -9.9 -9.999 -99.9 -99.99 -9.99
2019/11/15 22:42 PST  -99.99 -99.99    1   74    1 -99.9 -99.9 -999.9 -9.9 -9.999 -99.9 -99.99 -9.99
2019/11/15 22:48 PST  -99.99 -99.99    1  275    2 -99.9 -99.9 -999.9 -9.9 -9.999 -99.9 -99.99 -9.99
2019/11/15 22:54 PST  -99.99 -99.99    2   58    2 -99.9 -99.9 -999.9 -9.9 -9.999 -99.9 -99.99 -9.99
2019/11/15 23:00 PST  -99.99 -99.99    3   82    4 -99.9 -99.9 -999.9 -9.9 -9.999 -99.9 -99.99 -9.99
2019/11/15 23:06 PST  -99.99 -99.99    3   73    4 -99.9 -99.9 -999.9 -9.9 -9.999 -99.9 -99.99 -9.99
2019/11/15 23:12 PST  -99.99 -99.99    5   71    5 -99.9 -99.9 -999.9 -9.9 -9.999 -99.9 -99.99 -9.99
2019/11/15 23:18 PST  -99.99 -99.99    5   63    5 -99.9 -99.9 -999.9 -9.9 -9.999 -99.9 -99.99 -9.99
2019/11/15 23:24 PST  -99.99 -99.99    5   60    5 -99.9 -99.9 -999.9 -9.9 -9.999 -99.9 -99.99 -9.99
2019/11/15 23:30 PST  -99.99 -99.99    5   48    6 -99.9 -99.9 -999.9 -9.9 -9.999 -99.9 -99.99 -9.99
2019/11/15 23:36 PST  -99.99 -99.99    7   42    7 -99.9 -99.9 -999.9 -9.9 -9.999 -99.9 -99.99 -9.99
2019/11/15 23:42 PST  -99.99 -99.99    7   44    7 -99.9 -99.9 -999.9 -9.9 -9.999 -99.9 -99.99 -9.99
2019/11/15 23:48 PST  -99.99 -99.99    6   45    6 -99.9 -99.9 -999.9 -9.9 -9.999 -99.9 -99.99 -9.99
2019/11/15 23:54 PST  -99.99 -99.99    6   39    6 -99.9 -99.9 -999.9 -9.9 -9.999 -99.9 -99.99 -9.99
2019/11/16 00:00 PST  -99.99 -99.99    5   35    6 -99.9 -99.9 -999.9 -9.9 -9.999 -99.9 -99.99 -9.99
2019/11/16 00:06 PST  -99.99 -99.99    5   24    6 -99.9 -99.9 -999.9 -9.9 -9.999 -99.9 -99.99 -9.99
2019/11/16 00:12 PST  -99.99 -99.99    6   17    6 -99.9 -99.9 -999.9 -9.9 -9.999 -99.9 -99.99 -9.99
2019/11/16 00:18 PST  -99.99 -99.99    5   13    6 -99.9 -99.9 -999.9 -9.9 -9.999 -99.9 -99.99 -9.99
2019/11/16 00:24 PST  -99.99 -99.99    5  356    5 -99.9 -99.9 -999.9 -9.9 -9.999 -99.9 -99.99 -9.99
2019/11/16 00:30 PST  -99.99 -99.99    4  346    4 -99.9 -99.9 -999.9 -9.9 -9.999 -99.9 -99.99 -9.99
2019/11/16 00:36 PST  -99.99 -99.99    3  348    3 -99.9 -99.9 -999.9 -9.9 -9.999 -99.9 -99.99 -9.99
2019/11/16 00:42 PST  -99.99 -99.99    2  338    3 -99.9 -99.9 -999.9 -9.9 -9.999 -99.9 -99.99 -9.99
2019/11/16 00:48 PST  -99.99 -99.99    1  306    2 -99.9 -99.9 -999.9 -9.9 -9.999 -99.9 -99.99 -9.99
2019/11/16 00:54 PST  -99.99 -99.99    1  319    1 -99.9 -99.9 -999.9 -9.9 -9.999 -99.9 -99.99 -9.99
2019/11/16 01:00 PST  -99.99 -99.99    1   20    2 -99.9 -99.9 -999.9 -9.9 -9.999 -99.9 -99.99 -9.99
2019/11/16 01:06 PST  -99.99 -99.99    1  351    2 -99.9 -99.9 -999.9 -9.9 -9.999 -99.9 -99.99 -9.99
2019/11/16 01:12 PST  -99.99 -99.99    2  307    3 -99.9 -99.9 -999.9 -9.9 -9.999 -99.9 -99.99 -9.99
2019/11/16 01:18 PST  -99.99 -99.99    5  310    5 -99.9 -99.9 -999.9 -9.9 -9.999 -99.9 -99.99 -9.99
2019/11/16 01:24 PST  -99.99 -99.99    4  317    5 -99.9 -99.9 -999.9 -9.9 -9.999 -99.9 -99.99 -9.99
2019/11/16 01:30 PST  -99.99 -99.99    3  305    3 -99.9 -99.9 -999.9 -9.9 -9.999 -99.9 -99.99 -9.99
2019/11/16 01:36 PST  -99.99 -99.99    3  316    3 -99.9 -99.9 -999.9 -9.9 -9.999 -99.9 -99.99 -9.99
2019/11/16 01:42 PST  -99.99 -99.99    3  326    3 -99.9 -99.9 -999.9 -9.9 -9.999 -99.9 -99.99 -9.99
2019/11/16 01:48 PST  -99.99 -99.99    2  308    2 -99.9 -99.9 -999.9 -9.9 -9.999 -99.9 -99.99 -9.99
2019/11/16 01:54 PST  -99.99 -99.99    0  329    1 -99.9 -99.9 -999.9 -9.9 -9.999 -99.9 -99.99 -9.99
2019/11/16 02:00 PST  -99.99 -99.99    1  322    1 -99.9 -99.9 -999.9 -9.9 -9.999 -99.9 -99.99 -9.99
2019/11/16 02:06 PST  -99.99 -99.99    2  307    2 -99.9 -99.9 -999.9 -9.9 -9.999 -99.9 -99.99 -9.99
2019/11/16 02:12 PST  -99.99 -99.99    1  301    1 -99.9 -99.9 -999.9 -9.9 -9.999 -99.9 -99.99 -9.99
2019/11/16 02:18 PST  -99.99 -99.99    1   10    1 -99.9 -99.9 -999.9 -9.9 -9.999 -99.9 -99.99 -9.99
2019/11/16 02:24 PST  -99.99 -99.99    1  323    1 -99.9 -99.9 -999.9 -9.9 -9.999 -99.9 -99.99 -9.99
2019/11/16 02:30 PST  -99.99 -99.99    0    0    0 -99.9 -99.9 -999.9 -9.9 -9.999 -99.9 -99.99 -9.99
2019/11/16 02:36 PST  -99.99 -99.99    1  316    1 -99.9 -99.9 -999.9 -9.9 -9.999 -99.9 -99.99 -9.99
2019/11/16 02:42 PST  -99.99 -99.99 -999 -999 -999 -99.9 -99.9 -999.9 -9.9 -9.999 -99.9 -99.99 -9.99
2019/11/16 02:48 PST  -99.99 -99.99    0   12    0 -99.9 -99.9 -999.9 -9.9 -9.999 -99.9 -99.99 -9.99
2019/11/16 02:54 PST  -99.99 -99.99    1  346    1 -99.9 -99.9 -999.9 -9.9 -9.999 -99.9 -99.99 -9.99
2019/11/16 03:00 PST  -99.99 -99.99    3   70    3 -99.9 -99.9 -999.9 -9.9 -9.999 -99.9 -99.99 -9.99
2019/11/16 03:06 PST  -99.99 -99.99    2   49    2 -99.9 -99.9 -999.9 -9.9 -9.999 -99.9 -99.99 -9.99
2019/11/16 03:12 PST  -99.99 -99.99    2   48    2 -99.9 -99.9 -999.9 -9.9 -9.999 -99.9 -99.99 -9.99
2019/11/16 03:18 PST  -99.99 -99.99    0  312    1 -99.9 -99.9 -999.9 -9.9 -9.999 -99.9 -99.99 -9.99
2019/11/16 03:24 PST  -99.99 -99.99 -999 -999 -999 -99.9 -99.9 -999.9 -9.9 -9.999 -99.9 -99.99 -9.99
2019/11/16 03:30 PST  -99.99 -99.99    2  323    3 -99.9 -99.9 -999.9 -9.9 -9.999 -99.9 -99.99 -9.99
2019/11/16 03:36 PST  -99.99 -99.99    2  326    3 -99.9 -99.9 -999.9 -9.9 -9.999 -99.9 -99.99 -9.99
2019/11/16 03:42 PST  -99.99 -99.99    3  322    3 -99.9 -99.9 -999.9 -9.9 -9.999 -99.9 -99.99 -9.99
2019/11/16 03:48 PST  -99.99 -99.99    3  330    3 -99.9 -99.9 -999.9 -9.9 -9.999 -99.9 -99.99 -9.99
2019/11/16 03:54 PST  -99.99 -99.99    2  314    2 -99.9 -99.9 -999.9 -9.9 -9.999 -99.9 -99.99 -9.99
2019/11/16 04:00 PST  -99.99 -99.99    1  318    1 -99.9 -99.9 -999.9 -9.9 -9.999 -99.9 -99.99 -9.99
2019/11/16 04:06 PST  -99.99 -99.99    1  326    1 -99.9 -99.9 -999.9 -9.9 -9.999 -99.9 -99.99 -9.99
2019/11/16 04:12 PST  -99.99 -99.99    2  332    2 -99.9 -99.9 -999.9 -9.9 -9.999 -99.9 -99.99 -9.99
2019/11/16 04:18 PST  -99.99 -99.99    1  343    1 -99.9 -99.9 -999.9 -9.9 -9.999 -99.9 -99.99 -9.99
2019/11/16 04:24 PST  -99.99 -99.99    2  322    2 -99.9 -99.9 -999.9 -9.9 -9.999 -99.9 -99.99 -9.99
2019/11/16 04:30 PST  -99.99 -99.99    3  317    3 -99.9 -99.9 -999.9 -9.9 -9.999 -99.9 -99.99 -9.99
2019/11/16 04:36 PST  -99.99 -99.99    3  327    3 -99.9 -99.9 -999.9 -9.9 -9.999 -99.9 -99.99 -9.99
2019/11/16 04:42 PST  -99.99 -99.99 -999 -999 -999 -99.9 -99.9 -999.9 -9.9 -9.999 -99.9 -99.99 -9.99
2019/11/16 04:48 PST  -99.99 -99.99    3  342    4 -99.9 -99.9 -999.9 -9.9 -9.999 -99.9 -99.99 -9.99
2019/11/16 04:54 PST  -99.99 -99.99    2  343    3 -99.9 -99.9 -999.9 -9.9 -9.999 -99.9 -99.99 -9.99
2019/11/16 05:00 PST  -99.99 -99.99    2  322    3 -99.9 -99.9 -999.9 -9.9 -9.999 -99.9 -99.99 -9.99
2019/11/16 05:06 PST  -99.99 -99.99    3  330    3 -99.9 -99.9 -999.9 -9.9 -9.999 -99.9 -99.99 -9.99
2019/11/16 05:12 PST  -99.99 -99.99    3  302    3 -99.9 -99.9 -999.9 -9.9 -9.999 -99.9 -99.99 -9.99
2019/11/16 05:18 PST  -99.99 -99.99    3  319    3 -99.9 -99.9 -999.9 -9.9 -9.999 -99.9 -99.99 -9.99
2019/11/16 05:24 PST  -99.99 -99.99    4  317    5 -99.9 -99.9 -999.9 -9.9 -9.999 -99.9 -99.99 -9.99
2019/11/16 05:30 PST  -99.99 -99.99    4  319    5 -99.9 -99.9 -999.9 -9.9 -9.999 -99.9 -99.99 -9.99
2019/11/16 05:36 PST  -99.99 -99.99    5  336    5 -99.9 -99.9 -999.9 -9.9 -9.999 -99.9 -99.99 -9.99
2019/11/16 05:42 PST  -99.99 -99.99    5  340    5 -99.9 -99.9 -999.9 -9.9 -9.999 -99.9 -99.99 -9.99
2019/11/16 05:48 PST  -99.99 -99.99    4  350    4 -99.9 -99.9 -999.9 -9.9 -9.999 -99.9 -99.99 -9.99
2019/11/16 05:54 PST  -99.99 -99.99    3  333    4 -99.9 -99.9 -999.9 -9.9 -9.999 -99.9 -99.99 -9.99
2019/11/16 06:00 PST  -99.99 -99.99    4  324    4 -99.9 -99.9 -999.9 -9.9 -9.999 -99.9 -99.99 -9.99
2019/11/16 06:06 PST  -99.99 -99.99    2  311    3 -99.9 -99.9 -999.9 -9.9 -9.999 -99.9 -99.99 -9.99
2019/11/16 06:12 PST  -99.99 -99.99    3  301    4 -99.9 -99.9 -999.9 -9.9 -9.999 -99.9 -99.99 -9.99
2019/11/16 06:18 PST  -99.99 -99.99    3  290    3 -99.9 -99.9 -999.9 -9.9 -9.999 -99.9 -99.99 -9.99
2019/11/16 06:24 PST  -99.99 -99.99    4  270    5 -99.9 -99.9 -999.9 -9.9 -9.999 -99.9 -99.99 -9.99
2019/11/16 06:30 PST  -99.99 -99.99    5  281    6 -99.9 -99.9 -999.9 -9.9 -9.999 -99.9 -99.99 -9.99
2019/11/16 06:36 PST  -99.99 -99.99    4  273    5 -99.9 -99.9 -999.9 -9.9 -9.999 -99.9 -99.99 -9.99
2019/11/16 06:42 PST  -99.99 -99.99    3  277    4 -99.9 -99.9 -999.9 -9.9 -9.999 -99.9 -99.99 -9.99
2019/11/16 06:48 PST  -99.99 -99.99 -999 -999 -999 -99.9 -99.9 -999.9 -9.9 -9.999 -99.9 -99.99 -9.99
2019/11/16 06:54 PST  -99.99 -99.99    4  283    4 -99.9 -99.9 -999.9 -9.9 -9.999 -99.9 -99.99 -9.99
2019/11/16 07:00 PST  -99.99 -99.99    3  303    4 -99.9 -99.9 -999.9 -9.9 -9.999 -99.9 -99.99 -9.99
2019/11/16 07:06 PST  -99.99 -99.99    5  313    5 -99.9 -99.9 -999.9 -9.9 -9.999 -99.9 -99.99 -9.99
2019/11/16 07:12 PST  -99.99 -99.99    4  301    5 -99.9 -99.9 -999.9 -9.9 -9.999 -99.9 -99.99 -9.99
2019/11/16 07:18 PST  -99.99 -99.99    4  323    4 -99.9 -99.9 -999.9 -9.9 -9.999 -99.9 -99.99 -9.99
2019/11/16 07:24 PST  -99.99 -99.99    2  304    2 -99.9 -99.9 -999.9 -9.9 -9.999 -99.9 -99.99 -9.99
2019/11/16 07:30 PST  -99.99 -99.99    2  324    2 -99.9 -99.9 -999.9 -9.9 -9.999 -99.9 -99.99 -9.99
2019/11/16 07:36 PST  -99.99 -99.99    2  288    2 -99.9 -99.9 -999.9 -9.9 -9.999 -99.9 -99.99 -9.99
2019/11/16 07:42 PST  -99.99 -99.99    2  334    3 -99.9 -99.9 -999.9 -9.9 -9.999 -99.9 -99.99 -9.99
2019/11/16 07:48 PST  -99.99 -99.99    1  344    2 -99.9 -99.9 -999.9 -9.9 -9.999 -99.9 -99.99 -9.99
2019/11/16 07:54 PST  -99.99 -99.99    2   11    2 -99.9 -99.9 -999.9 -9.9 -9.999 -99.9 -99.99 -9.99
2019/11/16 08:00 PST  -99.99 -99.99    1    2    2 -99.9 -99.9 -999.9 -9.9 -9.999 -99.9 -99.99 -9.99
2019/11/16 08:06 PST  -99.99 -99.99    0    0    0 -99.9 -99.9 -999.9 -9.9 -9.999 -99.9 -99.99 -9.99
2019/11/16 08:12 PST  -99.99 -99.99 -999 -999 -999 -99.9 -99.9 -999.9 -9.9 -9.999 -99.9 -99.99 -9.99
2019/11/16 08:18 PST  -99.99 -99.99    2   94    2 -99.9 -99.9 -999.9 -9.9 -9.999 -99.9 -99.99 -9.99
2019/11/16 08:24 PST  -99.99 -99.99    3   59    4 -99.9 -99.9 -999.9 -9.9 -9.999 -99.9 -99.99 -9.99
2019/11/16 08:30 PST  -99.99 -99.99    3   64    3 -99.9 -99.9 -999.9 -9.9 -9.999 -99.9 -99.99 -9.99
2019/11/16 08:36 PST  -99.99 -99.99    0  104    1 -99.9 -99.9 -999.9 -9.9 -9.999 -99.9 -99.99 -9.99
2019/11/16 08:42 PST  -99.99 -99.99    0   64    0 -99.9 -99.9 -999.9 -9.9 -9.999 -99.9 -99.99 -9.99
2019/11/16 08:48 PST  -99.99 -99.99    0  141    0 -99.9 -99.9 -999.9 -9.9 -9.999 -99.9 -99.99 -9.99
2019/11/16 08:54 PST  -99.99 -99.99    1  270    2 -99.9 -99.9 -999.9 -9.9 -9.999 -99.9 -99.99 -9.99
2019/11/16 09:00 PST  -99.99 -99.99    2  212    2 -99.9 -99.9 -999.9 -9.9 -9.999 -99.9 -99.99 -9.99
2019/11/16 09:06 PST  -99.99 -99.99    2  159    3 -99.9 -99.9 -999.9 -9.9 -9.999 -99.9 -99.99 -9.99
2019/11/16 09:12 PST  -99.99 -99.99    2  167    2 -99.9 -99.9 -999.9 -9.9 -9.999 -99.9 -99.99 -9.99
2019/11/16 09:18 PST  -99.99 -99.99    2  185    3 -99.9 -99.9 -999.9 -9.9 -9.999 -99.9 -99.99 -9.99
2019/11/16 09:24 PST  -99.99 -99.99    2  164    3 -99.9 -99.9 -999.9 -9.9 -9.999 -99.9 -99.99 -9.99
2019/11/16 09:30 PST  -99.99 -99.99    3  155    3 -99.9 -99.9 -999.9 -9.9 -9.999 -99.9 -99.99 -9.99
2019/11/16 09:36 PST  -99.99 -99.99 -999 -999 -999 -99.9 -99.9 -999.9 -9.9 -9.999 -99.9 -99.99 -9.99
2019/11/16 09:42 PST  -99.99 -99.99    2  186    2 -99.9 -99.9 -999.9 -9.9 -9.999 -99.9 -99.99 -9.99
2019/11/16 09:48 PST  -99.99 -99.99    3  176    4 -99.9 -99.9 -999.9 -9.9 -9.999 -99.9 -99.99 -9.99
2019/11/16 09:54 PST  -99.99 -99.99    3  191    3 -99.9 -99.9 -999.9 -9.9 -9.999 -99.9 -99.99 -9.99
2019/11/16 10:00 PST  -99.99 -99.99    4  213    5 -99.9 -99.9 -999.9 -9.9 -9.999 -99.9 -99.99 -9.99
2019/11/16 10:06 PST  -99.99 -99.99    5  219    5 -99.9 -99.9 -999.9 -9.9 -9.999 -99.9 -99.99 -9.99
2019/11/16 10:12 PST  -99.99 -99.99    4  220    5 -99.9 -99.9 -999.9 -9.9 -9.999 -99.9 -99.99 -9.99
2019/11/16 10:18 PST  -99.99 -99.99    6  216    6 -99.9 -99.9 -999.9 -9.9 -9.999 -99.9 -99.99 -9.99
2019/11/16 10:24 PST  -99.99 -99.99    7  214    7 -99.9 -99.9 -999.9 -9.9 -9.999 -99.9 -99.99 -9.99
2019/11/16 10:30 PST  -99.99 -99.99    8  218    9 -99.9 -99.9 -999.9 -9.9 -9.999 -99.9 -99.99 -9.99
2019/11/16 10:36 PST  -99.99 -99.99    8  223    9 -99.9 -99.9 -999.9 -9.9 -9.999 -99.9 -99.99 -9.99
2019/11/16 10:42 PST  -99.99 -99.99    8  225    9 -99.9 -99.9 -999.9 -9.9 -9.999 -99.9 -99.99 -9.99
2019/11/16 10:48 PST  -99.99 -99.99    8  220    9 -99.9 -99.9 -999.9 -9.9 -9.999 -99.9 -99.99 -9.99
2019/11/16 10:54 PST  -99.99 -99.99    8  224   10 -99.9 -99.9 -999.9 -9.9 -9.999 -99.9 -99.99 -9.99
2019/11/16 11:00 PST  -99.99 -99.99    9  215   10 -99.9 -99.9 -999.9 -9.9 -9.999 -99.9 -99.99 -9.99
2019/11/16 11:06 PST  -99.99 -99.99    8  230   10 -99.9 -99.9 -999.9 -9.9 -9.999 -99.9 -99.99 -9.99
2019/11/16 11:12 PST  -99.99 -99.99   10  219   11 -99.9 -99.9 -999.9 -9.9 -9.999 -99.9 -99.99 -9.99
2019/11/16 11:18 PST  -99.99 -99.99    9  224   11 -99.9 -99.9 -999.9 -9.9 -9.999 -99.9 -99.99 -9.99
2019/11/16 11:24 PST  -99.99 -99.99   10  225   11 -99.9 -99.9 -999.9 -9.9 -9.999 -99.9 -99.99 -9.99
2019/11/16 11:30 PST  -99.99 -99.99   11  226   12 -99.9 -99.9 -999.9 -9.9 -9.999 -99.9 -99.99 -9.99
2019/11/16 11:36 PST  -99.99 -99.99   10  224   11 -99.9 -99.9 -999.9 -9.9 -9.999 -99.9 -99.99 -9.99
2019/11/16 11:42 PST  -99.99 -99.99   11  222   11 -99.9 -99.9 -999.9 -9.9 -9.999 -99.9 -99.99 -9.99
2019/11/16 11:48 PST  -99.99 -99.99   11  223   12 -99.9 -99.9 -999.9 -9.9 -9.999 -99.9 -99.99 -9.99
2019/11/16 11:54 PST  -99.99 -99.99   12  219   13 -99.9 -99.9 -999.9 -9.9 -9.999 -99.9 -99.99 -9.99
2019/11/16 12:00 PST  -99.99 -99.99   11  221   12 -99.9 -99.9 -999.9 -9.9 -9.999 -99.9 -99.99 -9.99
2019/11/16 12:06 PST  -99.99 -99.99   11  226   13 -99.9 -99.9 -999.9 -9.9 -9.999 -99.9 -99.99 -9.99
2019/11/16 12:12 PST  -99.99 -99.99   11  231   13 -99.9 -99.9 -999.9 -9.9 -9.999 -99.9 -99.99 -9.99
2019/11/16 12:18 PST  -99.99 -99.99   11  230   13 -99.9 -99.9 -999.9 -9.9 -9.999 -99.9 -99.99 -9.99
2019/11/16 12:24 PST  -99.99 -99.99   10  227   11 -99.9 -99.9 -999.9 -9.9 -9.999 -99.9 -99.99 -9.99
2019/11/16 12:30 PST  -99.99 -99.99   11  228   13 -99.9 -99.9 -999.9 -9.9 -9.999 -99.9 -99.99 -9.99
2019/11/16 12:36 PST  -99.99 -99.99   12  228   13 -99.9 -99.9 -999.9 -9.9 -9.999 -99.9 -99.99 -9.99
2019/11/16 12:42 PST  -99.99 -99.99   10  233   13 -99.9 -99.9 -999.9 -9.9 -9.999 -99.9 -99.99 -9.99
2019/11/16 12:48 PST  -99.99 -99.99   11  232   12 -99.9 -99.9 -999.9 -9.9 -9.999 -99.9 -99.99 -9.99
2019/11/16 12:54 PST  -99.99 -99.99    9  234   11 -99.9 -99.9 -999.9 -9.9 -9.999 -99.9 -99.99 -9.99
2019/11/16 13:00 PST  -99.99 -99.99   10  234   11 -99.9 -99.9 -999.9 -9.9 -9.999 -99.9 -99.99 -9.99
2019/11/16 13:06 PST  -99.99 -99.99   10  229   12 -99.9 -99.9 -999.9 -9.9 -9.999 -99.9 -99.99 -9.99
2019/11/16 13:12 PST  -99.99 -99.99   11  236   13 -99.9 -99.9 -999.9 -9.9 -9.999 -99.9 -99.99 -9.99
2019/11/16 13:18 PST  -99.99 -99.99   10  235   11 -99.9 -99.9 -999.9 -9.9 -9.999 -99.9 -99.99 -9.99
2019/11/16 13:24 PST  -99.99 -99.99   11  237   13 -99.9 -99.9 -999.9 -9.9 -9.999 -99.9 -99.99 -9.99
2019/11/16 13:30 PST  -99.99 -99.99 -999 -999 -999 -99.9 -99.9 -999.9 -9.9 -9.999 -99.9 -99.99 -9.99
2019/11/16 13:36 PST  -99.99 -99.99   11  234   13 -99.9 -99.9 -999.9 -9.9 -9.999 -99.9 -99.99 -9.99
2019/11/16 13:42 PST  -99.99 -99.99   10  234   12 -99.9 -99.9 -999.9 -9.9 -9.999 -99.9 -99.99 -9.99
2019/11/16 13:48 PST  -99.99 -99.99    9  231   11 -99.9 -99.9 -999.9 -9.9 -9.999 -99.9 -99.99 -9.99
2019/11/16 13:54 PST  -99.99 -99.99    9  233   11 -99.9 -99.9 -999.9 -9.9 -9.999 -99.9 -99.99 -9.99
2019/11/16 14:00 PST  -99.99 -99.99   10  233   13 -99.9 -99.9 -999.9 -9.9 -9.999 -99.9 -99.99 -9.99
2019/11/16 14:06 PST  -99.99 -99.99   11  234   13 -99.9 -99.9 -999.9 -9.9 -9.999 -99.9 -99.99 -9.99
2019/11/16 14:12 PST  -99.99 -99.99   10  236   14 -99.9 -99.9 -999.9 -9.9 -9.999 -99.9 -99.99 -9.99
2019/11/16 14:18 PST  -99.99 -99.99   11  236   13 -99.9 -99.9 -999.9 -9.9 -9.999 -99.9 -99.99 -9.99
2019/11/16 14:24 PST  -99.99 -99.99   11  236   13 -99.9 -99.9 -999.9 -9.9 -9.999 -99.9 -99.99 -9.99
2019/11/16 14:30 PST  -99.99 -99.99   14  242   16 -99.9 -99.9 -999.9 -9.9 -9.999 -99.9 -99.99 -9.99
2019/11/16 14:36 PST  -99.99 -99.99   12  246   13 -99.9 -99.9 -999.9 -9.9 -9.999 -99.9 -99.99 -9.99
2019/11/16 14:42 PST  -99.99 -99.99   11  243   14 -99.9 -99.9 -999.9 -9.9 -9.999 -99.9 -99.99 -9.99
2019/11/16 14:48 PST  -99.99 -99.99   12  247   13 -99.9 -99.9 -999.9 -9.9 -9.999 -99.9 -99.99 -9.99
2019/11/16 14:54 PST  -99.99 -99.99   10  247   11 -99.9 -99.9 -999.9 -9.9 -9.999 -99.9 -99.99 -9.99
2019/11/16 15:00 PST  -99.99 -99.99   10  247   12 -99.9 -99.9 -999.9 -9.9 -9.999 -99.9 -99.99 -9.99
2019/11/16 15:06 PST  -99.99 -99.99   10  246   11 -99.9 -99.9 -999.9 -9.9 -9.999 -99.9 -99.99 -9.99
2019/11/16 15:12 PST  -99.99 -99.99   10  249   11 -99.9 -99.9 -999.9 -9.9 -9.999 -99.9 -99.99 -9.99
2019/11/16 15:18 PST  -99.99 -99.99    9  242    9 -99.9 -99.9 -999.9 -9.9 -9.999 -99.9 -99.99 -9.99
2019/11/16 15:24 PST  -99.99 -99.99    6  229    8 -99.9 -99.9 -999.9 -9.9 -9.999 -99.9 -99.99 -9.99
2019/11/16 15:30 PST  -99.99 -99.99    6  230    8 -99.9 -99.9 -999.9 -9.9 -9.999 -99.9 -99.99 -9.99
2019/11/16 15:36 PST  -99.99 -99.99    7  238    8 -99.9 -99.9 -999.9 -9.9 -9.999 -99.9 -99.99 -9.99
2019/11/16 15:42 PST  -99.99 -99.99    7  240    8 -99.9 -99.9 -999.9 -9.9 -9.999 -99.9 -99.99 -9.99
2019/11/16 15:48 PST  -99.99 -99.99    6  233    7 -99.9 -99.9 -999.9 -9.9 -9.999 -99.9 -99.99 -9.99
2019/11/16 15:54 PST  -99.99 -99.99    4  228    5 -99.9 -99.9 -999.9 -9.9 -9.999 -99.9 -99.99 -9.99
2019/11/16 16:00 PST  -99.99 -99.99    6  229    7 -99.9 -99.9 -999.9 -9.9 -9.999 -99.9 -99.99 -9.99
2019/11/16 16:06 PST  -99.99 -99.99    7  225    8 -99.9 -99.9 -999.9 -9.9 -9.999 -99.9 -99.99 -9.99
2019/11/16 16:12 PST  -99.99 -99.99    8  240   11 -99.9 -99.9 -999.9 -9.9 -9.999 -99.9 -99.99 -9.99
2019/11/16 16:18 PST  -99.99 -99.99    7  244    8 -99.9 -99.9 -999.9 -9.9 -9.999 -99.9 -99.99 -9.99
2019/11/16 16:24 PST  -99.99 -99.99    6  246    6 -99.9 -99.9 -999.9 -9.9 -9.999 -99.9 -99.99 -9.99
2019/11/16 16:30 PST  -99.99 -99.99    3  225    3 -99.9 -99.9 -999.9 -9.9 -9.999 -99.9 -99.99 -9.99
2019/11/16 16:36 PST  -99.99 -99.99    5  222    6 -99.9 -99.9 -999.9 -9.9 -9.999 -99.9 -99.99 -9.99
2019/11/16 16:42 PST  -99.99 -99.99    7  223    8 -99.9 -99.9 -999.9 -9.9 -9.999 -99.9 -99.99 -9.99
2019/11/16 16:48 PST  -99.99 -99.99    6  220    8 -99.9 -99.9 -999.9 -9.9 -9.999 -99.9 -99.99 -9.99
2019/11/16 16:54 PST  -99.99 -99.99    7  252    7 -99.9 -99.9 -999.9 -9.9 -9.999 -99.9 -99.99 -9.99
2019/11/16 17:00 PST  -99.99 -99.99    4  264    4 -99.9 -99.9 -999.9 -9.9 -9.999 -99.9 -99.99 -9.99
2019/11/16 17:06 PST  -99.99 -99.99    2  280    2 -99.9 -99.9 -999.9 -9.9 -9.999 -99.9 -99.99 -9.99
2019/11/16 17:12 PST  -99.99 -99.99    3  217    3 -99.9 -99.9 -999.9 -9.9 -9.999 -99.9 -99.99 -9.99
2019/11/16 17:18 PST  -99.99 -99.99    4  235    4 -99.9 -99.9 -999.9 -9.9 -9.999 -99.9 -99.99 -9.99
2019/11/16 17:24 PST  -99.99 -99.99    4  226    5 -99.9 -99.9 -999.9 -9.9 -9.999 -99.9 -99.99 -9.99
2019/11/16 17:30 PST  -99.99 -99.99    2  223    2 -99.9 -99.9 -999.9 -9.9 -9.999 -99.9 -99.99 -9.99
2019/11/16 17:36 PST  -99.99 -99.99    2  192    3 -99.9 -99.9 -999.9 -9.9 -9.999 -99.9 -99.99 -9.99
2019/11/16 17:42 PST  -99.99 -99.99    2  213    2 -99.9 -99.9 -999.9 -9.9 -9.999 -99.9 -99.99 -9.99
2019/11/16 17:48 PST  -99.99 -99.99    3  210    4 -99.9 -99.9 -999.9 -9.9 -9.999 -99.9 -99.99 -9.99
2019/11/16 17:54 PST  -99.99 -99.99    2  217    3 -99.9 -99.9 -999.9 -9.9 -9.999 -99.9 -99.99 -9.99
2019/11/16 18:00 PST  -99.99 -99.99    3  236    3 -99.9 -99.9 -999.9 -9.9 -9.999 -99.9 -99.99 -9.99
2019/11/16 18:06 PST  -99.99 -99.99    0  292    1 -99.9 -99.9 -999.9 -9.9 -9.999 -99.9 -99.99 -9.99
2019/11/16 18:12 PST  -99.99 -99.99    1  279    1 -99.9 -99.9 -999.9 -9.9 -9.999 -99.9 -99.99 -9.99
2019/11/16 18:18 PST  -99.99 -99.99    1  359    1 -99.9 -99.9 -999.9 -9.9 -9.999 -99.9 -99.99 -9.99
2019/11/16 18:24 PST  -99.99 -99.99    2   20    2 -99.9 -99.9 -999.9 -9.9 -9.999 -99.9 -99.99 -9.99
2019/11/16 18:30 PST  -99.99 -99.99    1   27    1 -99.9 -99.9 -999.9 -9.9 -9.999 -99.9 -99.99 -9.99
2019/11/16 18:36 PST  -99.99 -99.99    2  312    3 -99.9 -99.9 -999.9 -9.9 -9.999 -99.9 -99.99 -9.99
2019/11/16 18:42 PST  -99.99 -99.99    3  313    4 -99.9 -99.9 -999.9 -9.9 -9.999 -99.9 -99.99 -9.99
2019/11/16 18:48 PST  -99.99 -99.99    1  224    1 -99.9 -99.9 -999.9 -9.9 -9.999 -99.9 -99.99 -9.99
2019/11/16 18:54 PST  -99.99 -99.99    2  226    2 -99.9 -99.9 -999.9 -9.9 -9.999 -99.9 -99.99 -9.99
2019/11/16 19:00 PST  -99.99 -99.99    1  214    1 -99.9 -99.9 -999.9 -9.9 -9.999 -99.9 -99.99 -9.99
2019/11/16 19:06 PST  -99.99 -99.99 -999 -999 -999 -99.9 -99.9 -999.9 -9.9 -9.999 -99.9 -99.99 -9.99
2019/11/16 19:12 PST  -99.99 -99.99    1   24    1 -99.9 -99.9 -999.9 -9.9 -9.999 -99.9 -99.99 -9.99
2019/11/16 19:18 PST  -99.99 -99.99    0    0    0 -99.9 -99.9 -999.9 -9.9 -9.999 -99.9 -99.99 -9.99
2019/11/16 19:24 PST  -99.99 -99.99    1  321    1 -99.9 -99.9 -999.9 -9.9 -9.999 -99.9 -99.99 -9.99
2019/11/16 19:30 PST  -99.99 -99.99    1  299    1 -99.9 -99.9 -999.9 -9.9 -9.999 -99.9 -99.99 -9.99
2019/11/16 19:36 PST  -99.99 -99.99    0    0    0 -99.9 -99.9 -999.9 -9.9 -9.999 -99.9 -99.99 -9.99
2019/11/16 19:42 PST  -99.99 -99.99    1  298    1 -99.9 -99.9 -999.9 -9.9 -9.999 -99.9 -99.99 -9.99
2019/11/16 19:48 PST  -99.99 -99.99    0    0    0 -99.9 -99.9 -999.9 -9.9 -9.999 -99.9 -99.99 -9.99
2019/11/16 19:54 PST  -99.99 -99.99    1  119    1 -99.9 -99.9 -999.9 -9.9 -9.999 -99.9 -99.99 -9.99
2019/11/16 20:00 PST  -99.99 -99.99    1  104    1 -99.9 -99.9 -999.9 -9.9 -9.999 -99.9 -99.99 -9.99
2019/11/16 20:06 PST  -99.99 -99.99    0    0    0 -99.9 -99.9 -999.9 -9.9 -9.999 -99.9 -99.99 -9.99
2019/11/16 20:12 PST  -99.99 -99.99    0   68    0 -99.9 -99.9 -999.9 -9.9 -9.999 -99.9 -99.99 -9.99
2019/11/16 20:18 PST  -99.99 -99.99    0  196    1 -99.9 -99.9 -999.9 -9.9 -9.999 -99.9 -99.99 -9.99
2019/11/16 20:24 PST  -99.99 -99.99 -999 -999 -999 -99.9 -99.9 -999.9 -9.9 -9.999 -99.9 -99.99 -9.99
2019/11/16 20:30 PST  -99.99 -99.99    2  195    2 -99.9 -99.9 -999.9 -9.9 -9.999 -99.9 -99.99 -9.99
2019/11/16 20:36 PST  -99.99 -99.99    2  180    2 -99.9 -99.9 -999.9 -9.9 -9.999 -99.9 -99.99 -9.99
2019/11/16 20:42 PST  -99.99 -99.99    2  175    3 -99.9 -99.9 -999.9 -9.9 -9.999 -99.9 -99.99 -9.99
2019/11/16 20:48 PST  -99.99 -99.99    3  200    3 -99.9 -99.9 -999.9 -9.9 -9.999 -99.9 -99.99 -9.99
2019/11/16 20:54 PST  -99.99 -99.99    2  201    3 -99.9 -99.9 -999.9 -9.9 -9.999 -99.9 -99.99 -9.99
2019/11/16 21:00 PST  -99.99 -99.99    0  135    0 -99.9 -99.9 -999.9 -9.9 -9.999 -99.9 -99.99 -9.99
2019/11/16 21:06 PST  -99.99 -99.99    1   32    1 -99.9 -99.9 -999.9 -9.9 -9.999 -99.9 -99.99 -9.99
2019/11/16 21:12 PST  -99.99 -99.99    1   46    1 -99.9 -99.9 -999.9 -9.9 -9.999 -99.9 -99.99 -9.99
2019/11/16 21:18 PST  -99.99 -99.99    1   46    1 -99.9 -99.9 -999.9 -9.9 -9.999 -99.9 -99.99 -9.99
2019/11/16 21:24 PST  -99.99 -99.99    0    0    0 -99.9 -99.9 -999.9 -9.9 -9.999 -99.9 -99.99 -9.99
2019/11/16 21:30 PST  -99.99 -99.99    1  287    1 -99.9 -99.9 -999.9 -9.9 -9.999 -99.9 -99.99 -9.99
2019/11/16 21:36 PST  -99.99 -99.99    1   53    1 -99.9 -99.9 -999.9 -9.9 -9.999 -99.9 -99.99 -9.99
2019/11/16 21:42 PST  -99.99 -99.99    2   26    2 -99.9 -99.9 -999.9 -9.9 -9.999 -99.9 -99.99 -9.99
2019/11/16 21:48 PST  -99.99 -99.99    1   81    2 -99.9 -99.9 -999.9 -9.9 -9.999 -99.9 -99.99 -9.99
2019/11/16 21:54 PST  -99.99 -99.99    3   49    3 -99.9 -99.9 -999.9 -9.9 -9.999 -99.9 -99.99 -9.99
2019/11/16 22:00 PST  -99.99 -99.99    3   61    3 -99.9 -99.9 -999.9 -9.9 -9.999 -99.9 -99.99 -9.99
2019/11/16 22:06 PST  -99.99 -99.99    4   66    4 -99.9 -99.9 -999.9 -9.9 -9.999 -99.9 -99.99 -9.99
2019/11/16 22:12 PST  -99.99 -99.99    3   83    4 -99.9 -99.9 -999.9 -9.9 -9.999 -99.9 -99.99 -9.99
2019/11/16 22:18 PST  -99.99 -99.99    3   75    3 -99.9 -99.9 -999.9 -9.9 -9.999 -99.9 -99.99 -9.99
2019/11/16 22:24 PST  -99.99 -99.99    2   64    3 -99.9 -99.9 -999.9 -9.9 -9.999 -99.9 -99.99 -9.99
2019/11/16 22:30 PST  -99.99 -99.99    4   55    4 -99.9 -99.9 -999.9 -9.9 -9.999 -99.9 -99.99 -9.99
2019/11/16 22:36 PST  -99.99 -99.99    3   48    4 -99.9 -99.9 -999.9 -9.9 -9.999 -99.9 -99.99 -9.99
2019/11/16 22:42 PST  -99.99 -99.99    3   30    3 -99.9 -99.9 -999.9 -9.9 -9.999 -99.9 -99.99 -9.99
2019/11/16 22:48 PST  -99.99 -99.99    4   41    4 -99.9 -99.9 -999.9 -9.9 -9.999 -99.9 -99.99 -9.99
2019/11/16 22:54 PST  -99.99 -99.99    3   47    3 -99.9 -99.9 -999.9 -9.9 -9.999 -99.9 -99.99 -9.99
2019/11/16 23:00 PST  -99.99 -99.99    2   14    3 -99.9 -99.9 -999.9 -9.9 -9.999 -99.9 -99.99 -9.99
2019/11/16 23:06 PST  -99.99 -99.99    2   19    2 -99.9 -99.9 -999.9 -9.9 -9.999 -99.9 -99.99 -9.99
2019/11/16 23:12 PST  -99.99 -99.99    3   49    4 -99.9 -99.9 -999.9 -9.9 -9.999 -99.9 -99.99 -9.99
2019/11/16 23:18 PST  -99.99 -99.99    4   53    4 -99.9 -99.9 -999.9 -9.9 -9.999 -99.9 -99.99 -9.99
2019/11/16 23:24 PST  -99.99 -99.99    1   36    2 -99.9 -99.9 -999.9 -9.9 -9.999 -99.9 -99.99 -9.99
2019/11/16 23:30 PST  -99.99 -99.99    4   34    4 -99.9 -99.9 -999.9 -9.9 -9.999 -99.9 -99.99 -9.99
2019/11/16 23:36 PST  -99.99 -99.99    3   42    3 -99.9 -99.9 -999.9 -9.9 -9.999 -99.9 -99.99 -9.99
2019/11/16 23:42 PST  -99.99 -99.99    2   11    3 -99.9 -99.9 -999.9 -9.9 -9.999 -99.9 -99.99 -9.99
2019/11/16 23:48 PST  -99.99 -99.99    2   11    3 -99.9 -99.9 -999.9 -9.9 -9.999 -99.9 -99.99 -9.99
2019/11/16 23:54 PST  -99.99 -99.99    3   43    4 -99.9 -99.9 -999.9 -9.9 -9.999 -99.9 -99.99 -9.99
2019/11/17 00:00 PST  -99.99 -99.99    4   25    4 -99.9 -99.9 -999.9 -9.9 -9.999 -99.9 -99.99 -9.99
2019/11/17 00:06 PST  -99.99 -99.99    4   36    4 -99.9 -99.9 -999.9 -9.9 -9.999 -99.9 -99.99 -9.99
2019/11/17 00:12 PST  -99.99 -99.99    3   22    4 -99.9 -99.9 -999.9 -9.9 -9.999 -99.9 -99.99 -9.99
2019/11/17 00:18 PST  -99.99 -99.99    4   27    4 -99.9 -99.9 -999.9 -9.9 -9.999 -99.9 -99.99 -9.99
2019/11/17 00:24 PST  -99.99 -99.99    4   26    5 -99.9 -99.9 -999.9 -9.9 -9.999 -99.9 -99.99 -9.99
2019/11/17 00:30 PST  -99.99 -99.99    5   23    5 -99.9 -99.9 -999.9 -9.9 -9.999 -99.9 -99.99 -9.99
2019/11/17 00:36 PST  -99.99 -99.99    5   28    5 -99.9 -99.9 -999.9 -9.9 -9.999 -99.9 -99.99 -9.99
2019/11/17 00:42 PST  -99.99 -99.99    4   57    4 -99.9 -99.9 -999.9 -9.9 -9.999 -99.9 -99.99 -9.99
2019/11/17 00:48 PST  -99.99 -99.99    3   43    3 -99.9 -99.9 -999.9 -9.9 -9.999 -99.9 -99.99 -9.99
2019/11/17 00:54 PST  -99.99 -99.99    2   51    2 -99.9 -99.9 -999.9 -9.9 -9.999 -99.9 -99.99 -9.99
2019/11/17 01:00 PST  -99.99 -99.99    3   71    3 -99.9 -99.9 -999.9 -9.9 -9.999 -99.9 -99.99 -9.99
2019/11/17 01:06 PST  -99.99 -99.99    2   77    2 -99.9 -99.9 -999.9 -9.9 -9.999 -99.9 -99.99 -9.99
2019/11/17 01:12 PST  -99.99 -99.99    2   80    3 -99.9 -99.9 -999.9 -9.9 -9.999 -99.9 -99.99 -9.99
2019/11/17 01:18 PST  -99.99 -99.99    2    6    3 -99.9 -99.9 -999.9 -9.9 -9.999 -99.9 -99.99 -9.99
2019/11/17 01:24 PST  -99.99 -99.99    6  349    6 -99.9 -99.9 -999.9 -9.9 -9.999 -99.9 -99.99 -9.99
2019/11/17 01:30 PST  -99.99 -99.99    6    1    6 -99.9 -99.9 -999.9 -9.9 -9.999 -99.9 -99.99 -9.99
2019/11/17 01:36 PST  -99.99 -99.99    6  349    7 -99.9 -99.9 -999.9 -9.9 -9.999 -99.9 -99.99 -9.99
2019/11/17 01:42 PST  -99.99 -99.99    5  354    6 -99.9 -99.9 -999.9 -9.9 -9.999 -99.9 -99.99 -9.99
2019/11/17 01:48 PST  -99.99 -99.99    5  349    5 -99.9 -99.9 -999.9 -9.9 -9.999 -99.9 -99.99 -9.99
2019/11/17 01:54 PST  -99.99 -99.99    5  358    5 -99.9 -99.9 -999.9 -9.9 -9.999 -99.9 -99.99 -9.99
2019/11/17 02:00 PST  -99.99 -99.99    4  357    4 -99.9 -99.9 -999.9 -9.9 -9.999 -99.9 -99.99 -9.99
2019/11/17 02:06 PST  -99.99 -99.99    3  346    4 -99.9 -99.9 -999.9 -9.9 -9.999 -99.9 -99.99 -9.99
2019/11/17 02:12 PST  -99.99 -99.99    2   23    3 -99.9 -99.9 -999.9 -9.9 -9.999 -99.9 -99.99 -9.99
2019/11/17 02:18 PST  -99.99 -99.99    2   24    2 -99.9 -99.9 -999.9 -9.9 -9.999 -99.9 -99.99 -9.99
2019/11/17 02:24 PST  -99.99 -99.99    0    0    0 -99.9 -99.9 -999.9 -9.9 -9.999 -99.9 -99.99 -9.99
2019/11/17 02:30 PST  -99.99 -99.99    2  304    2 -99.9 -99.9 -999.9 -9.9 -9.999 -99.9 -99.99 -9.99
2019/11/17 02:36 PST  -99.99 -99.99    1  268    2 -99.9 -99.9 -999.9 -9.9 -9.999 -99.9 -99.99 -9.99
2019/11/17 02:42 PST  -99.99 -99.99    1  228    1 -99.9 -99.9 -999.9 -9.9 -9.999 -99.9 -99.99 -9.99
2019/11/17 02:48 PST  -99.99 -99.99    1  288    1 -99.9 -99.9 -999.9 -9.9 -9.999 -99.9 -99.99 -9.99
2019/11/17 02:54 PST  -99.99 -99.99    4  160    5 -99.9 -99.9 -999.9 -9.9 -9.999 -99.9 -99.99 -9.99
2019/11/17 03:00 PST  -99.99 -99.99    3  115    3 -99.9 -99.9 -999.9 -9.9 -9.999 -99.9 -99.99 -9.99
2019/11/17 03:06 PST  -99.99 -99.99    3   90    3 -99.9 -99.9 -999.9 -9.9 -9.999 -99.9 -99.99 -9.99
2019/11/17 03:12 PST  -99.99 -99.99    4  114    5 -99.9 -99.9 -999.9 -9.9 -9.999 -99.9 -99.99 -9.99
2019/11/17 03:18 PST  -99.99 -99.99    4  113    4 -99.9 -99.9 -999.9 -9.9 -9.999 -99.9 -99.99 -9.99
2019/11/17 03:24 PST  -99.99 -99.99    4  107    4 -99.9 -99.9 -999.9 -9.9 -9.999 -99.9 -99.99 -9.99
2019/11/17 03:30 PST  -99.99 -99.99    0   43    0 -99.9 -99.9 -999.9 -9.9 -9.999 -99.9 -99.99 -9.99
2019/11/17 03:36 PST  -99.99 -99.99    1  311    1 -99.9 -99.9 -999.9 -9.9 -9.999 -99.9 -99.99 -9.99
2019/11/17 03:42 PST  -99.99 -99.99    1  267    1 -99.9 -99.9 -999.9 -9.9 -9.999 -99.9 -99.99 -9.99
2019/11/17 03:48 PST  -99.99 -99.99    1   34    1 -99.9 -99.9 -999.9 -9.9 -9.999 -99.9 -99.99 -9.99
2019/11/17 03:54 PST  -99.99 -99.99    3  331    3 -99.9 -99.9 -999.9 -9.9 -9.999 -99.9 -99.99 -9.99
2019/11/17 04:00 PST  -99.99 -99.99    4  313    4 -99.9 -99.9 -999.9 -9.9 -9.999 -99.9 -99.99 -9.99
2019/11/17 04:06 PST  -99.99 -99.99    1  240    1 -99.9 -99.9 -999.9 -9.9 -9.999 -99.9 -99.99 -9.99
2019/11/17 04:12 PST  -99.99 -99.99    1  125    1 -99.9 -99.9 -999.9 -9.9 -9.999 -99.9 -99.99 -9.99
2019/11/17 04:18 PST  -99.99 -99.99    3  270    3 -99.9 -99.9 -999.9 -9.9 -9.999 -99.9 -99.99 -9.99
2019/11/17 04:24 PST  -99.99 -99.99    3    7    3 -99.9 -99.9 -999.9 -9.9 -9.999 -99.9 -99.99 -9.99
2019/11/17 04:30 PST  -99.99 -99.99    4    6    4 -99.9 -99.9 -999.9 -9.9 -9.999 -99.9 -99.99 -9.99
2019/11/17 04:36 PST  -99.99 -99.99    4  353    4 -99.9 -99.9 -999.9 -9.9 -9.999 -99.9 -99.99 -9.99
2019/11/17 04:42 PST  -99.99 -99.99    5    9    5 -99.9 -99.9 -999.9 -9.9 -9.999 -99.9 -99.99 -9.99
2019/11/17 04:48 PST  -99.99 -99.99    3  332    4 -99.9 -99.9 -999.9 -9.9 -9.999 -99.9 -99.99 -9.99
2019/11/17 04:54 PST  -99.99 -99.99    4  339    4 -99.9 -99.9 -999.9 -9.9 -9.999 -99.9 -99.99 -9.99
2019/11/17 05:00 PST  -99.99 -99.99    5  354    5 -99.9 -99.9 -999.9 -9.9 -9.999 -99.9 -99.99 -9.99
2019/11/17 05:06 PST  -99.99 -99.99    6  354    7 -99.9 -99.9 -999.9 -9.9 -9.999 -99.9 -99.99 -9.99
2019/11/17 05:12 PST  -99.99 -99.99    8  338    8 -99.9 -99.9 -999.9 -9.9 -9.999 -99.9 -99.99 -9.99
2019/11/17 05:18 PST  -99.99 -99.99    7  331    8 -99.9 -99.9 -999.9 -9.9 -9.999 -99.9 -99.99 -9.99
2019/11/17 05:24 PST  -99.99 -99.99    8  318    8 -99.9 -99.9 -999.9 -9.9 -9.999 -99.9 -99.99 -9.99
2019/11/17 05:30 PST  -99.99 -99.99    8  322    8 -99.9 -99.9 -999.9 -9.9 -9.999 -99.9 -99.99 -9.99
2019/11/17 05:36 PST  -99.99 -99.99    8  320    9 -99.9 -99.9 -999.9 -9.9 -9.999 -99.9 -99.99 -9.99
2019/11/17 05:42 PST  -99.99 -99.99    8  311    9 -99.9 -99.9 -999.9 -9.9 -9.999 -99.9 -99.99 -9.99
2019/11/17 05:48 PST  -99.99 -99.99    9  316    9 -99.9 -99.9 -999.9 -9.9 -9.999 -99.9 -99.99 -9.99
2019/11/17 05:54 PST  -99.99 -99.99    7  329    8 -99.9 -99.9 -999.9 -9.9 -9.999 -99.9 -99.99 -9.99
2019/11/17 06:00 PST  -99.99 -99.99    7  319    7 -99.9 -99.9 -999.9 -9.9 -9.999 -99.9 -99.99 -9.99
2019/11/17 06:06 PST  -99.99 -99.99    7  322    8 -99.9 -99.9 -999.9 -9.9 -9.999 -99.9 -99.99 -9.99
2019/11/17 06:12 PST  -99.99 -99.99    6  310    7 -99.9 -99.9 -999.9 -9.9 -9.999 -99.9 -99.99 -9.99
2019/11/17 06:18 PST  -99.99 -99.99    5  306    6 -99.9 -99.9 -999.9 -9.9 -9.999 -99.9 -99.99 -9.99
2019/11/17 06:24 PST  -99.99 -99.99    7  329    7 -99.9 -99.9 -999.9 -9.9 -9.999 -99.9 -99.99 -9.99
2019/11/17 06:30 PST  -99.99 -99.99    6  335    6 -99.9 -99.9 -999.9 -9.9 -9.999 -99.9 -99.99 -9.99
2019/11/17 06:36 PST  -99.99 -99.99    4  328    5 -99.9 -99.9 -999.9 -9.9 -9.999 -99.9 -99.99 -9.99
2019/11/17 06:42 PST  -99.99 -99.99    4  326    5 -99.9 -99.9 -999.9 -9.9 -9.999 -99.9 -99.99 -9.99
2019/11/17 06:48 PST  -99.99 -99.99    5  337    5 -99.9 -99.9 -999.9 -9.9 -9.999 -99.9 -99.99 -9.99
2019/11/17 06:54 PST  -99.99 -99.99    5  346    5 -99.9 -99.9 -999.9 -9.9 -9.999 -99.9 -99.99 -9.99
2019/11/17 07:00 PST  -99.99 -99.99    7  347    8 -99.9 -99.9 -999.9 -9.9 -9.999 -99.9 -99.99 -9.99
2019/11/17 07:06 PST  -99.99 -99.99    7  334    8 -99.9 -99.9 -999.9 -9.9 -9.999 -99.9 -99.99 -9.99
2019/11/17 07:12 PST  -99.99 -99.99    5  339    6 -99.9 -99.9 -999.9 -9.9 -9.999 -99.9 -99.99 -9.99
2019/11/17 07:18 PST  -99.99 -99.99 -999 -999 -999 -99.9 -99.9 -999.9 -9.9 -9.999 -99.9 -99.99 -9.99
2019/11/17 07:24 PST  -99.99 -99.99 -999 -999 -999 -99.9 -99.9 -999.9 -9.9 -9.999 -99.9 -99.99 -9.99
2019/11/17 07:30 PST  -99.99 -99.99    6  316    7 -99.9 -99.9 -999.9 -9.9 -9.999 -99.9 -99.99 -9.99
2019/11/17 07:36 PST  -99.99 -99.99    3  315    4 -99.9 -99.9 -999.9 -9.9 -9.999 -99.9 -99.99 -9.99
2019/11/17 07:42 PST  -99.99 -99.99    6  326    7 -99.9 -99.9 -999.9 -9.9 -9.999 -99.9 -99.99 -9.99
2019/11/17 07:48 PST  -99.99 -99.99    6  312    8 -99.9 -99.9 -999.9 -9.9 -9.999 -99.9 -99.99 -9.99
2019/11/17 07:54 PST  -99.99 -99.99    5  303    7 -99.9 -99.9 -999.9 -9.9 -9.999 -99.9 -99.99 -9.99
2019/11/17 08:00 PST  -99.99 -99.99    4  298    5 -99.9 -99.9 -999.9 -9.9 -9.999 -99.9 -99.99 -9.99
2019/11/17 08:06 PST  -99.99 -99.99    2  271    3 -99.9 -99.9 -999.9 -9.9 -9.999 -99.9 -99.99 -9.99
2019/11/17 08:12 PST  -99.99 -99.99    5  316    6 -99.9 -99.9 -999.9 -9.9 -9.999 -99.9 -99.99 -9.99
2019/11/17 08:18 PST  -99.99 -99.99    9  323    9 -99.9 -99.9 -999.9 -9.9 -9.999 -99.9 -99.99 -9.99
2019/11/17 08:24 PST  -99.99 -99.99   11  324   11 -99.9 -99.9 -999.9 -9.9 -9.999 -99.9 -99.99 -9.99
2019/11/17 08:30 PST  -99.99 -99.99   10  332   11 -99.9 -99.9 -999.9 -9.9 -9.999 -99.9 -99.99 -9.99
2019/11/17 08:36 PST  -99.99 -99.99   10  337   11 -99.9 -99.9 -999.9 -9.9 -9.999 -99.9 -99.99 -9.99
2019/11/17 08:42 PST  -99.99 -99.99   10  348   11 -99.9 -99.9 -999.9 -9.9 -9.999 -99.9 -99.99 -9.99
2019/11/17 08:48 PST  -99.99 -99.99   11  352   13 -99.9 -99.9 -999.9 -9.9 -9.999 -99.9 -99.99 -9.99
2019/11/17 08:54 PST  -99.99 -99.99   10  355   11 -99.9 -99.9 -999.9 -9.9 -9.999 -99.9 -99.99 -9.99
2019/11/17 09:00 PST  -99.99 -99.99   11  353   12 -99.9 -99.9 -999.9 -9.9 -9.999 -99.9 -99.99 -9.99
2019/11/17 09:06 PST  -99.99 -99.99   12  358   15 -99.9 -99.9 -999.9 -9.9 -9.999 -99.9 -99.99 -9.99
2019/11/17 09:12 PST  -99.99 -99.99   12  359   13 -99.9 -99.9 -999.9 -9.9 -9.999 -99.9 -99.99 -9.99
2019/11/17 09:18 PST  -99.99 -99.99   12    2   13 -99.9 -99.9 -999.9 -9.9 -9.999 -99.9 -99.99 -9.99
2019/11/17 09:24 PST  -99.99 -99.99   11    1   13 -99.9 -99.9 -999.9 -9.9 -9.999 -99.9 -99.99 -9.99
2019/11/17 09:30 PST  -99.99 -99.99   14    5   16 -99.9 -99.9 -999.9 -9.9 -9.999 -99.9 -99.99 -9.99
2019/11/17 09:36 PST  -99.99 -99.99   11    3   13 -99.9 -99.9 -999.9 -9.9 -9.999 -99.9 -99.99 -9.99
2019/11/17 09:42 PST  -99.99 -99.99   14    4   16 -99.9 -99.9 -999.9 -9.9 -9.999 -99.9 -99.99 -9.99
2019/11/17 09:48 PST  -99.99 -99.99   13  352   14 -99.9 -99.9 -999.9 -9.9 -9.999 -99.9 -99.99 -9.99
2019/11/17 09:54 PST  -99.99 -99.99   11  348   11 -99.9 -99.9 -999.9 -9.9 -9.999 -99.9 -99.99 -9.99
2019/11/17 10:00 PST  -99.99 -99.99   10  346   11 -99.9 -99.9 -999.9 -9.9 -9.999 -99.9 -99.99 -9.99
2019/11/17 10:06 PST  -99.99 -99.99    8  342    9 -99.9 -99.9 -999.9 -9.9 -9.999 -99.9 -99.99 -9.99
2019/11/17 10:12 PST  -99.99 -99.99 -999 -999 -999 -99.9 -99.9 -999.9 -9.9 -9.999 -99.9 -99.99 -9.99
2019/11/17 10:18 PST  -99.99 -99.99    7  352    8 -99.9 -99.9 -999.9 -9.9 -9.999 -99.9 -99.99 -9.99
2019/11/17 10:24 PST  -99.99 -99.99    7  349    8 -99.9 -99.9 -999.9 -9.9 -9.999 -99.9 -99.99 -9.99
2019/11/17 10:30 PST  -99.99 -99.99    9  341   10 -99.9 -99.9 -999.9 -9.9 -9.999 -99.9 -99.99 -9.99
2019/11/17 10:36 PST  -99.99 -99.99 -999 -999 -999 -99.9 -99.9 -999.9 -9.9 -9.999 -99.9 -99.99 -9.99
2019/11/17 10:42 PST  -99.99 -99.99    7  336    8 -99.9 -99.9 -999.9 -9.9 -9.999 -99.9 -99.99 -9.99
2019/11/17 10:48 PST  -99.99 -99.99    6  332    7 -99.9 -99.9 -999.9 -9.9 -9.999 -99.9 -99.99 -9.99
2019/11/17 10:54 PST  -99.99 -99.99    6  344    6 -99.9 -99.9 -999.9 -9.9 -9.999 -99.9 -99.99 -9.99
2019/11/17 11:00 PST  -99.99 -99.99    6  343    8 -99.9 -99.9 -999.9 -9.9 -9.999 -99.9 -99.99 -9.99
2019/11/17 11:06 PST  -99.99 -99.99    4  345    5 -99.9 -99.9 -999.9 -9.9 -9.999 -99.9 -99.99 -9.99
2019/11/17 11:12 PST  -99.99 -99.99    5  339    5 -99.9 -99.9 -999.9 -9.9 -9.999 -99.9 -99.99 -9.99
2019/11/17 11:18 PST  -99.99 -99.99    4  340    4 -99.9 -99.9 -999.9 -9.9 -9.999 -99.9 -99.99 -9.99
2019/11/17 11:24 PST  -99.99 -99.99    3  341    3 -99.9 -99.9 -999.9 -9.9 -9.999 -99.9 -99.99 -9.99
2019/11/17 11:30 PST  -99.99 -99.99    2  345    3 -99.9 -99.9 -999.9 -9.9 -9.999 -99.9 -99.99 -9.99
2019/11/17 11:36 PST  -99.99 -99.99    1  261    2 -99.9 -99.9 -999.9 -9.9 -9.999 -99.9 -99.99 -9.99
2019/11/17 11:42 PST  -99.99 -99.99    4  226    5 -99.9 -99.9 -999.9 -9.9 -9.999 -99.9 -99.99 -9.99
2019/11/17 11:48 PST  -99.99 -99.99    5  236    8 -99.9 -99.9 -999.9 -9.9 -9.999 -99.9 -99.99 -9.99
2019/11/17 11:54 PST  -99.99 -99.99 -999 -999 -999 -99.9 -99.9 -999.9 -9.9 -9.999 -99.9 -99.99 -9.99
2019/11/17 12:00 PST  -99.99 -99.99    7  235    9 -99.9 -99.9 -999.9 -9.9 -9.999 -99.9 -99.99 -9.99
2019/11/17 12:06 PST  -99.99 -99.99    7  230    8 -99.9 -99.9 -999.9 -9.9 -9.999 -99.9 -99.99 -9.99
2019/11/17 12:12 PST  -99.99 -99.99    5  222    6 -99.9 -99.9 -999.9 -9.9 -9.999 -99.9 -99.99 -9.99
2019/11/17 12:18 PST  -99.99 -99.99    5  212    5 -99.9 -99.9 -999.9 -9.9 -9.999 -99.9 -99.99 -9.99
2019/11/17 12:24 PST  -99.99 -99.99    8  225   10 -99.9 -99.9 -999.9 -9.9 -9.999 -99.9 -99.99 -9.99
2019/11/17 12:30 PST  -99.99 -99.99    8  229    9 -99.9 -99.9 -999.9 -9.9 -9.999 -99.9 -99.99 -9.99
2019/11/17 12:36 PST  -99.99 -99.99    7  235    9 -99.9 -99.9 -999.9 -9.9 -9.999 -99.9 -99.99 -9.99
2019/11/17 12:42 PST  -99.99 -99.99    7  234    9 -99.9 -99.9 -999.9 -9.9 -9.999 -99.9 -99.99 -9.99
2019/11/17 12:48 PST  -99.99 -99.99    6  221    7 -99.9 -99.9 -999.9 -9.9 -9.999 -99.9 -99.99 -9.99
2019/11/17 12:54 PST  -99.99 -99.99    6  219    7 -99.9 -99.9 -999.9 -9.9 -9.999 -99.9 -99.99 -9.99
2019/11/17 13:00 PST  -99.99 -99.99    7  222    7 -99.9 -99.9 -999.9 -9.9 -9.999 -99.9 -99.99 -9.99
2019/11/17 13:06 PST  -99.99 -99.99    8  233    9 -99.9 -99.9 -999.9 -9.9 -9.999 -99.9 -99.99 -9.99
2019/11/17 13:12 PST  -99.99 -99.99    8  233    8 -99.9 -99.9 -999.9 -9.9 -9.999 -99.9 -99.99 -9.99
2019/11/17 13:18 PST  -99.99 -99.99    8  233    9 -99.9 -99.9 -999.9 -9.9 -9.999 -99.9 -99.99 -9.99
2019/11/17 13:24 PST  -99.99 -99.99    9  240    9 -99.9 -99.9 -999.9 -9.9 -9.999 -99.9 -99.99 -9.99
2019/11/17 13:30 PST  -99.99 -99.99    9  245    9 -99.9 -99.9 -999.9 -9.9 -9.999 -99.9 -99.99 -9.99
2019/11/17 13:36 PST  -99.99 -99.99    9  240    9 -99.9 -99.9 -999.9 -9.9 -9.999 -99.9 -99.99 -9.99
2019/11/17 13:42 PST  -99.99 -99.99    8  241    8 -99.9 -99.9 -999.9 -9.9 -9.999 -99.9 -99.99 -9.99
2019/11/17 13:48 PST  -99.99 -99.99    7  232    8 -99.9 -99.9 -999.9 -9.9 -9.999 -99.9 -99.99 -9.99
2019/11/17 13:54 PST  -99.99 -99.99    8  229    9 -99.9 -99.9 -999.9 -9.9 -9.999 -99.9 -99.99 -9.99
2019/11/17 14:00 PST  -99.99 -99.99    7  227    9 -99.9 -99.9 -999.9 -9.9 -9.999 -99.9 -99.99 -9.99
2019/11/17 14:06 PST  -99.99 -99.99    7  229   10 -99.9 -99.9 -999.9 -9.9 -9.999 -99.9 -99.99 -9.99
2019/11/17 14:12 PST  -99.99 -99.99    9  238   10 -99.9 -99.9 -999.9 -9.9 -9.999 -99.9 -99.99 -9.99
2019/11/17 14:18 PST  -99.99 -99.99    8  246    8 -99.9 -99.9 -999.9 -9.9 -9.999 -99.9 -99.99 -9.99
2019/11/17 14:24 PST  -99.99 -99.99    8  243    8 -99.9 -99.9 -999.9 -9.9 -9.999 -99.9 -99.99 -9.99
2019/11/17 14:30 PST  -99.99 -99.99    9  251   10 -99.9 -99.9 -999.9 -9.9 -9.999 -99.9 -99.99 -9.99
2019/11/17 14:36 PST  -99.99 -99.99    9  249    9 -99.9 -99.9 -999.9 -9.9 -9.999 -99.9 -99.99 -9.99
2019/11/17 14:42 PST  -99.99 -99.99    8  255    9 -99.9 -99.9 -999.9 -9.9 -9.999 -99.9 -99.99 -9.99
2019/11/17 14:48 PST  -99.99 -99.99    8  250    9 -99.9 -99.9 -999.9 -9.9 -9.999 -99.9 -99.99 -9.99
2019/11/17 14:54 PST  -99.99 -99.99    7  251    7 -99.9 -99.9 -999.9 -9.9 -9.999 -99.9 -99.99 -9.99
2019/11/17 15:00 PST  -99.99 -99.99    7  222    7 -99.9 -99.9 -999.9 -9.9 -9.999 -99.9 -99.99 -9.99
2019/11/17 15:06 PST  -99.99 -99.99    9  233   10 -99.9 -99.9 -999.9 -9.9 -9.999 -99.9 -99.99 -9.99
2019/11/17 15:12 PST  -99.99 -99.99    9  236   10 -99.9 -99.9 -999.9 -9.9 -9.999 -99.9 -99.99 -9.99
2019/11/17 15:18 PST  -99.99 -99.99    9  241   11 -99.9 -99.9 -999.9 -9.9 -9.999 -99.9 -99.99 -9.99
2019/11/17 15:24 PST  -99.99 -99.99    8  221   10 -99.9 -99.9 -999.9 -9.9 -9.999 -99.9 -99.99 -9.99
2019/11/17 15:30 PST  -99.99 -99.99    9  237   10 -99.9 -99.9 -999.9 -9.9 -9.999 -99.9 -99.99 -9.99
2019/11/17 15:36 PST  -99.99 -99.99 -999 -999 -999 -99.9 -99.9 -999.9 -9.9 -9.999 -99.9 -99.99 -9.99
2019/11/17 15:42 PST  -99.99 -99.99    9  231   11 -99.9 -99.9 -999.9 -9.9 -9.999 -99.9 -99.99 -9.99
2019/11/17 15:48 PST  -99.99 -99.99   10  242   10 -99.9 -99.9 -999.9 -9.9 -9.999 -99.9 -99.99 -9.99
2019/11/17 15:54 PST  -99.99 -99.99   10  244   11 -99.9 -99.9 -999.9 -9.9 -9.999 -99.9 -99.99 -9.99
2019/11/17 16:00 PST  -99.99 -99.99   10  251   10 -99.9 -99.9 -999.9 -9.9 -9.999 -99.9 -99.99 -9.99
2019/11/17 16:06 PST  -99.99 -99.99    9  255   10 -99.9 -99.9 -999.9 -9.9 -9.999 -99.9 -99.99 -9.99
2019/11/17 16:12 PST  -99.99 -99.99    8  253    8 -99.9 -99.9 -999.9 -9.9 -9.999 -99.9 -99.99 -9.99
2019/11/17 16:18 PST  -99.99 -99.99 -999 -999 -999 -99.9 -99.9 -999.9 -9.9 -9.999 -99.9 -99.99 -9.99
2019/11/17 16:24 PST  -99.99 -99.99    6  244    6 -99.9 -99.9 -999.9 -9.9 -9.999 -99.9 -99.99 -9.99
2019/11/17 16:30 PST  -99.99 -99.99    6  260    6 -99.9 -99.9 -999.9 -9.9 -9.999 -99.9 -99.99 -9.99
2019/11/17 16:36 PST  -99.99 -99.99    6  278    6 -99.9 -99.9 -999.9 -9.9 -9.999 -99.9 -99.99 -9.99
2019/11/17 16:42 PST  -99.99 -99.99    4  308    4 -99.9 -99.9 -999.9 -9.9 -9.999 -99.9 -99.99 -9.99
2019/11/17 16:48 PST  -99.99 -99.99    2  255    3 -99.9 -99.9 -999.9 -9.9 -9.999 -99.9 -99.99 -9.99
2019/11/17 16:54 PST  -99.99 -99.99    5  224    6 -99.9 -99.9 -999.9 -9.9 -9.999 -99.9 -99.99 -9.99
2019/11/17 17:00 PST  -99.99 -99.99 -999 -999 -999 -99.9 -99.9 -999.9 -9.9 -9.999 -99.9 -99.99 -9.99
2019/11/17 17:06 PST  -99.99 -99.99    3  260    3 -99.9 -99.9 -999.9 -9.9 -9.999 -99.9 -99.99 -9.99
2019/11/17 17:12 PST  -99.99 -99.99    2  269    3 -99.9 -99.9 -999.9 -9.9 -9.999 -99.9 -99.99 -9.99
2019/11/17 17:18 PST  -99.99 -99.99    3  246    4 -99.9 -99.9 -999.9 -9.9 -9.999 -99.9 -99.99 -9.99
2019/11/17 17:24 PST  -99.99 -99.99    2  265    2 -99.9 -99.9 -999.9 -9.9 -9.999 -99.9 -99.99 -9.99
2019/11/17 17:30 PST  -99.99 -99.99    4  331    4 -99.9 -99.9 -999.9 -9.9 -9.999 -99.9 -99.99 -9.99
2019/11/17 17:36 PST  -99.99 -99.99    3    4    3 -99.9 -99.9 -999.9 -9.9 -9.999 -99.9 -99.99 -9.99
2019/11/17 17:42 PST  -99.99 -99.99    3   30    3 -99.9 -99.9 -999.9 -9.9 -9.999 -99.9 -99.99 -9.99
2019/11/17 17:48 PST  -99.99 -99.99 -999 -999 -999 -99.9 -99.9 -999.9 -9.9 -9.999 -99.9 -99.99 -9.99
2019/11/17 17:54 PST  -99.99 -99.99    3  357    3 -99.9 -99.9 -999.9 -9.9 -9.999 -99.9 -99.99 -9.99
2019/11/17 18:00 PST  -99.99 -99.99    1  322    2 -99.9 -99.9 -999.9 -9.9 -9.999 -99.9 -99.99 -9.99
2019/11/17 18:06 PST  -99.99 -99.99    2  310    2 -99.9 -99.9 -999.9 -9.9 -9.999 -99.9 -99.99 -9.99
2019/11/17 18:12 PST  -99.99 -99.99    4  295    4 -99.9 -99.9 -999.9 -9.9 -9.999 -99.9 -99.99 -9.99
2019/11/17 18:18 PST  -99.99 -99.99    3  316    3 -99.9 -99.9 -999.9 -9.9 -9.999 -99.9 -99.99 -9.99
2019/11/17 18:24 PST  -99.99 -99.99    4  329    4 -99.9 -99.9 -999.9 -9.9 -9.999 -99.9 -99.99 -9.99
2019/11/17 18:30 PST  -99.99 -99.99 -999 -999 -999 -99.9 -99.9 -999.9 -9.9 -9.999 -99.9 -99.99 -9.99
2019/11/17 18:36 PST  -99.99 -99.99    4  356    4 -99.9 -99.9 -999.9 -9.9 -9.999 -99.9 -99.99 -9.99
2019/11/17 18:42 PST  -99.99 -99.99    3  341    3 -99.9 -99.9 -999.9 -9.9 -9.999 -99.9 -99.99 -9.99
2019/11/17 18:48 PST  -99.99 -99.99    2  324    2 -99.9 -99.9 -999.9 -9.9 -9.999 -99.9 -99.99 -9.99
2019/11/17 18:54 PST  -99.99 -99.99    4  192    5 -99.9 -99.9 -999.9 -9.9 -9.999 -99.9 -99.99 -9.99
2019/11/17 19:00 PST  -99.99 -99.99    5  187    5 -99.9 -99.9 -999.9 -9.9 -9.999 -99.9 -99.99 -9.99
2019/11/17 19:06 PST  -99.99 -99.99    4  186    5 -99.9 -99.9 -999.9 -9.9 -9.999 -99.9 -99.99 -9.99
2019/11/17 19:12 PST  -99.99 -99.99    4  178    5 -99.9 -99.9 -999.9 -9.9 -9.999 -99.9 -99.99 -9.99
2019/11/17 19:18 PST  -99.99 -99.99    4  169    4 -99.9 -99.9 -999.9 -9.9 -9.999 -99.9 -99.99 -9.99
2019/11/17 19:24 PST  -99.99 -99.99    3  173    3 -99.9 -99.9 -999.9 -9.9 -9.999 -99.9 -99.99 -9.99
2019/11/17 19:30 PST  -99.99 -99.99    3  165    3 -99.9 -99.9 -999.9 -9.9 -9.999 -99.9 -99.99 -9.99
2019/11/17 19:36 PST  -99.99 -99.99    5  159    5 -99.9 -99.9 -999.9 -9.9 -9.999 -99.9 -99.99 -9.99
2019/11/17 19:42 PST  -99.99 -99.99    3  140    3 -99.9 -99.9 -999.9 -9.9 -9.999 -99.9 -99.99 -9.99
2019/11/17 19:48 PST  -99.99 -99.99    2  129    3 -99.9 -99.9 -999.9 -9.9 -9.999 -99.9 -99.99 -9.99
2019/11/17 19:54 PST  -99.99 -99.99    2  106    2 -99.9 -99.9 -999.9 -9.9 -9.999 -99.9 -99.99 -9.99
2019/11/17 20:00 PST  -99.99 -99.99    4  107    4 -99.9 -99.9 -999.9 -9.9 -9.999 -99.9 -99.99 -9.99
2019/11/17 20:06 PST  -99.99 -99.99    6   75    6 -99.9 -99.9 -999.9 -9.9 -9.999 -99.9 -99.99 -9.99
2019/11/17 20:12 PST  -99.99 -99.99    7  100    8 -99.9 -99.9 -999.9 -9.9 -9.999 -99.9 -99.99 -9.99
2019/11/17 20:18 PST  -99.99 -99.99    6   83    6 -99.9 -99.9 -999.9 -9.9 -9.999 -99.9 -99.99 -9.99
2019/11/17 20:24 PST  -99.99 -99.99    5  109    5 -99.9 -99.9 -999.9 -9.9 -9.999 -99.9 -99.99 -9.99
2019/11/17 20:30 PST  -99.99 -99.99 -999 -999 -999 -99.9 -99.9 -999.9 -9.9 -9.999 -99.9 -99.99 -9.99
2019/11/17 20:36 PST  -99.99 -99.99    6  148    7 -99.9 -99.9 -999.9 -9.9 -9.999 -99.9 -99.99 -9.99
2019/11/17 20:42 PST  -99.99 -99.99    4  129    5 -99.9 -99.9 -999.9 -9.9 -9.999 -99.9 -99.99 -9.99
2019/11/17 20:48 PST  -99.99 -99.99    4  139    4 -99.9 -99.9 -999.9 -9.9 -9.999 -99.9 -99.99 -9.99
2019/11/17 20:54 PST  -99.99 -99.99    2  154    3 -99.9 -99.9 -999.9 -9.9 -9.999 -99.9 -99.99 -9.99
2019/11/17 21:00 PST  -99.99 -99.99    2   33    3 -99.9 -99.9 -999.9 -9.9 -9.999 -99.9 -99.99 -9.99
2019/11/17 21:06 PST  -99.99 -99.99 -999 -999 -999 -99.9 -99.9 -999.9 -9.9 -9.999 -99.9 -99.99 -9.99
2019/11/17 21:12 PST  -99.99 -99.99    2   21    2 -99.9 -99.9 -999.9 -9.9 -9.999 -99.9 -99.99 -9.99
2019/11/17 21:18 PST  -99.99 -99.99    2    7    2 -99.9 -99.9 -999.9 -9.9 -9.999 -99.9 -99.99 -9.99
2019/11/17 21:24 PST  -99.99 -99.99    2   61    3 -99.9 -99.9 -999.9 -9.9 -9.999 -99.9 -99.99 -9.99
2019/11/17 21:30 PST  -99.99 -99.99    4   34    5 -99.9 -99.9 -999.9 -9.9 -9.999 -99.9 -99.99 -9.99
2019/11/17 21:36 PST  -99.99 -99.99    4   39    4 -99.9 -99.9 -999.9 -9.9 -9.999 -99.9 -99.99 -9.99
2019/11/17 21:42 PST  -99.99 -99.99    3   20    3 -99.9 -99.9 -999.9 -9.9 -9.999 -99.9 -99.99 -9.99
2019/11/17 21:48 PST  -99.99 -99.99    0    0    0 -99.9 -99.9 -999.9 -9.9 -9.999 -99.9 -99.99 -9.99
2019/11/17 21:54 PST  -99.99 -99.99    1  181    2 -99.9 -99.9 -999.9 -9.9 -9.999 -99.9 -99.99 -9.99
2019/11/17 22:00 PST  -99.99 -99.99    2  309    2 -99.9 -99.9 -999.9 -9.9 -9.999 -99.9 -99.99 -9.99
2019/11/17 22:06 PST  -99.99 -99.99    4  203    5 -99.9 -99.9 -999.9 -9.9 -9.999 -99.9 -99.99 -9.99
2019/11/17 22:12 PST  -99.99 -99.99    2  300    3 -99.9 -99.9 -999.9 -9.9 -9.999 -99.9 -99.99 -9.99
2019/11/17 22:18 PST  -99.99 -99.99    1  340    1 -99.9 -99.9 -999.9 -9.9 -9.999 -99.9 -99.99 -9.99
2019/11/17 22:24 PST  -99.99 -99.99    0    0    0 -99.9 -99.9 -999.9 -9.9 -9.999 -99.9 -99.99 -9.99
2019/11/17 22:30 PST  -99.99 -99.99    1  339    2 -99.9 -99.9 -999.9 -9.9 -9.999 -99.9 -99.99 -9.99
2019/11/17 22:36 PST  -99.99 -99.99    4   10    4 -99.9 -99.9 -999.9 -9.9 -9.999 -99.9 -99.99 -9.99
2019/11/17 22:42 PST  -99.99 -99.99    4  360    4 -99.9 -99.9 -999.9 -9.9 -9.999 -99.9 -99.99 -9.99
2019/11/17 22:48 PST  -99.99 -99.99    4  347    5 -99.9 -99.9 -999.9 -9.9 -9.999 -99.9 -99.99 -9.99
2019/11/17 22:54 PST  -99.99 -99.99    4  339    5 -99.9 -99.9 -999.9 -9.9 -9.999 -99.9 -99.99 -9.99
2019/11/17 23:00 PST  -99.99 -99.99    4  339    5 -99.9 -99.9 -999.9 -9.9 -9.999 -99.9 -99.99 -9.99
2019/11/17 23:06 PST  -99.99 -99.99    4  335    5 -99.9 -99.9 -999.9 -9.9 -9.999 -99.9 -99.99 -9.99
2019/11/17 23:12 PST  -99.99 -99.99    5  338    5 -99.9 -99.9 -999.9 -9.9 -9.999 -99.9 -99.99 -9.99
2019/11/17 23:18 PST  -99.99 -99.99 -999 -999 -999 -99.9 -99.9 -999.9 -9.9 -9.999 -99.9 -99.99 -9.99